GFSSE_925_thetae_051.txt.gz
Theta_e
342 339 335 328 327 326 327 326 322 325 330 330 327 328 329 329 328 329 328 326 329 330 330 330 329 328 327 328 329 329 328 326 325 327 327 329 329 329 330 330 330 330 331
343 338 334 334 330 328 325 323 322 320 329 333 328 326 325 326 326 325 325 328 330 331 331 331 330 330 328 328 328 326 326 326 326 326 325 325 326 326 327 329 327 328 328
342 339 336 330 328 328 326 323 319 322 332 336 333 331 330 327 326 325 326 329 331 331 331 331 331 331 330 328 325 327 326 325 324 325 325 324 324 324 324 325 324 323 323
341 338 336 334 329 326 327 324 319 319 333 335 332 332 331 327 324 323 326 330 330 330 330 329 328 327 326 324 322 321 322 323 323 324 323 323 323 324 323 323 322 322 322
340 337 332 332 329 328 326 323 320 329 331 334 333 331 326 324 320 320 326 329 329 330 328 327 324 324 324 323 320 313 313 315 318 321 321 321 322 323 324 322 322 319 319
339 337 334 332 331 329 328 325 326 324 331 334 333 329 325 320 317 319 324 328 329 328 326 322 319 319 322 321 313 311 311 311 313 317 318 320 321 322 321 321 318 317 317
335 336 335 332 331 331 329 327 328 329 331 334 333 329 326 319 318 320 325 327 326 324 319 318 321 321 321 317 314 311 311 312 313 318 319 320 321 320 318 318 317 317 316
333 331 332 331 328 329 329 328 322 330 331 332 334 330 324 319 317 318 319 319 317 315 315 318 321 321 320 318 317 314 313 312 312 316 318 319 320 319 318 317 317 316 316
335 334 330 331 330 330 333 327 322 329 330 331 332 329 324 321 317 315 314 313 313 313 315 315 317 321 321 320 320 317 315 314 313 315 318 319 319 318 318 317 316 315 314
333 336 335 329 329 328 324 319 324 328 330 330 331 328 325 320 316 315 316 316 314 313 315 313 314 315 316 318 320 317 316 314 313 315 317 318 318 318 317 316 315 314 313
333 334 334 328 327 323 320 318 323 328 329 329 330 329 325 321 316 315 316 316 315 314 315 313 313 314 315 319 320 318 315 313 313 316 318 318 319 318 317 316 315 314 313
330 332 331 329 326 326 324 319 322 324 324 330 332 331 325 320 316 316 316 317 316 313 314 314 314 313 312 315 318 318 314 312 313 315 318 318 319 318 316 316 316 314 313
328 328 328 327 324 323 318 316 316 319 321 323 327 329 326 319 316 316 316 317 317 314 314 314 315 314 312 312 317 315 312 312 313 314 317 318 318 318 317 317 316 315 313
327 326 327 326 325 322 320 317 315 315 316 322 325 328 324 318 316 317 317 318 317 316 316 317 317 314 312 311 313 311 311 310 309 311 315 316 318 318 318 316 315 314 313
326 327 325 324 321 320 319 319 318 322 323 325 327 325 320 316 316 317 318 318 317 316 318 318 316 315 312 308 308 308 308 308 308 309 309 313 318 318 317 318 317 316 313
324 326 325 323 321 318 318 319 323 326 325 324 323 319 317 316 317 317 318 318 317 317 318 318 318 315 312 308 306 306 307 307 307 308 308 309 317 318 318 318 318 317 315
320 324 325 325 323 320 321 322 327 325 320 319 316 316 316 317 317 318 318 318 318 317 319 319 318 314 312 308 306 306 306 307 307 306 307 307 309 311 317 317 318 318 316
320 320 322 325 325 323 323 326 326 322 318 322 319 316 317 317 316 316 317 318 319 318 319 319 317 314 313 310 307 305 306 306 306 306 306 308 307 307 306 313 316 316 316
318 319 320 321 324 322 321 326 324 323 322 324 322 318 318 317 317 317 320 320 320 320 320 320 317 315 314 311 308 307 306 306 306 306 306 307 307 307 307 305 309 314 314
317 318 317 320 321 320 319 319 323 324 323 323 321 319 320 320 321 322 323 323 322 322 321 320 318 316 314 312 309 307 306 306 306 306 306 306 306 305 305 305 306 311 312
316 317 318 318 318 319 319 321 322 323 321 322 320 320 322 322 322 324 324 323 323 323 322 321 319 316 313 312 308 307 306 306 306 306 305 306 306 305 305 304 305 306 308
316 316 318 317 318 319 320 320 319 318 315 316 318 317 316 316 316 320 320 321 324 323 322 320 319 316 315 313 309 308 307 309 308 307 305 305 305 305 305 304 304 303 302
315 315 316 317 317 316 317 317 319 318 318 316 316 315 314 314 314 314 319 323 323 323 322 320 319 319 315 312 310 310 307 307 306 308 306 304 304 304 304 305 304 302 302
314 315 315 316 317 317 315 315 315 315 315 315 315 316 315 314 314 314 317 319 321 323 324 323 321 319 318 312 308 309 309 309 305 305 305 306 306 305 304 303 303 302 301
314 315 315 315 316 316 315 314 314 314 314 314 314 314 315 315 314 314 317 320 319 322 322 323 322 319 318 315 312 310 308 307 308 305 306 306 305 306 305 303 303 302 301
314 314 315 315 315 316 315 314 313 313 314 314 314 314 314 315 314 313 317 321 321 323 323 324 322 320 320 315 315 314 310 310 307 305 303 304 303 305 305 305 304 303 301

GFSSE_925_thetae_054.txt.gz
Theta_e
337 330 329 326 329 328 328 330 336 337 335 334 333 328 328 331 333 332 332 332 331 331 331 330 330 330 330 329 328 328 329 328 328 328 328 330 330 331 330 330 329 330 331
339 333 335 336 330 326 325 327 329 336 335 334 331 333 334 332 331 329 329 330 330 330 329 328 328 327 327 327 328 328 325 324 325 326 326 327 329 329 328 327 326 328 329
340 337 336 329 328 328 324 328 336 335 335 333 334 331 330 332 330 331 332 332 331 331 330 329 329 329 328 327 325 325 324 323 323 323 323 323 324 324 323 322 323 322 323
340 337 334 330 329 326 325 324 334 337 331 327 329 332 332 331 332 332 332 330 330 331 331 331 331 329 327 324 322 321 323 324 323 322 323 323 323 323 323 323 322 321 320
340 337 333 330 330 326 324 323 328 325 326 330 330 331 331 331 332 331 330 330 330 331 330 330 330 328 318 319 320 320 322 322 321 321 323 322 322 322 321 319 320 319 320
341 339 335 331 329 329 331 334 334 335 333 331 330 331 330 331 332 331 330 329 329 328 328 329 328 321 313 312 313 315 316 317 319 322 321 321 320 320 319 319 318 318 318
339 338 335 332 332 332 332 333 334 334 332 329 328 330 330 330 331 331 329 329 327 323 324 325 323 318 312 310 311 312 312 314 317 320 321 320 319 319 318 317 317 316 316
334 334 332 332 329 328 327 331 331 334 333 329 327 328 329 329 330 330 328 325 319 319 320 320 321 316 315 313 313 313 313 316 319 320 319 319 319 319 318 317 316 315 315
331 332 333 332 332 329 327 321 321 329 333 329 326 328 327 328 328 328 324 317 318 320 322 321 320 318 317 315 315 314 313 314 316 318 319 319 319 318 317 316 315 315 314
333 332 331 332 329 330 329 327 321 328 331 330 326 326 325 326 325 323 316 315 317 320 321 321 320 319 318 317 316 314 313 314 316 317 318 318 318 318 317 316 315 314 313
333 332 330 329 329 328 326 324 322 321 323 330 327 321 324 322 317 314 313 315 316 315 316 318 319 319 319 317 316 314 312 313 315 317 318 318 319 318 317 315 314 314 313
330 327 323 322 327 325 321 319 318 322 325 328 324 325 321 318 315 315 314 314 314 314 314 315 316 317 319 318 316 313 311 312 315 317 318 318 319 318 316 316 314 313 312
330 326 324 324 324 321 319 319 320 322 325 325 323 324 319 316 316 315 314 314 313 314 313 313 315 316 316 318 316 313 312 312 315 317 318 318 318 318 317 317 315 313 312
328 327 324 323 320 319 319 317 316 320 322 323 323 321 319 316 316 316 315 313 313 315 314 313 312 312 315 317 315 312 312 311 313 316 317 318 318 318 318 317 316 314 312
326 326 324 322 321 319 317 318 321 323 323 324 322 321 318 316 316 316 316 314 314 315 317 314 313 312 312 315 312 311 310 310 311 313 315 317 317 318 319 318 317 316 314
326 326 324 323 321 319 316 316 319 318 321 323 322 321 318 316 317 317 317 316 316 317 317 315 315 312 309 308 309 309 309 308 309 309 311 313 316 317 318 319 318 317 315
325 326 324 322 322 319 318 317 317 318 317 317 318 323 319 316 317 317 317 317 317 318 317 316 314 312 310 306 306 307 307 307 307 308 308 308 312 317 317 317 318 319 316
322 325 325 323 321 319 319 318 319 320 319 319 321 323 321 316 317 317 318 317 317 317 318 317 317 312 310 308 306 306 306 307 307 306 306 307 307 310 316 317 315 315 316
320 321 324 324 321 319 319 321 323 322 322 322 322 324 319 316 317 318 318 318 318 317 318 319 317 315 312 309 306 306 306 307 307 306 306 306 307 307 307 308 313 315 315
318 319 320 321 322 320 321 322 324 323 321 322 320 319 317 316 317 316 317 318 319 317 318 319 319 316 313 311 307 306 306 306 306 306 306 307 306 307 307 306 306 311 313
317 318 318 320 320 322 322 323 323 323 321 322 319 317 317 316 316 317 318 319 319 319 321 319 318 316 314 312 308 306 305 305 305 305 305 306 306 306 306 305 305 305 308
317 318 318 318 320 321 322 320 320 320 321 321 321 318 319 319 321 322 322 323 322 321 322 321 320 317 315 312 310 307 306 307 306 306 306 305 305 306 305 305 305 304 304
316 316 318 317 318 319 318 318 320 320 319 320 314 319 321 319 319 319 320 321 323 323 323 322 321 320 317 313 311 311 306 307 306 308 307 306 305 305 305 305 305 304 303
315 315 316 317 317 318 319 319 317 317 316 318 317 314 316 315 317 314 314 319 323 322 323 322 321 320 317 314 309 309 310 309 306 307 305 308 306 305 305 306 305 305 304
314 314 315 317 317 316 318 318 320 319 318 317 318 316 315 314 316 314 314 314 315 319 320 322 322 319 317 316 314 310 308 307 306 307 308 306 305 306 306 306 305 304 304
314 315 315 316 317 316 316 316 318 317 317 319 316 316 316 315 315 315 314 314 314 314 319 320 322 322 321 319 316 313 311 309 307 307 305 306 305 306 307 307 306 305 303

GFSSE_925_thetae_057.txt.gz
Theta_e
340 341 333 331 332 334 338 337 339 338 334 333 331 325 334 334 333 332 335 335 335 334 333 333 333 332 331 332 332 332 330 329 329 330 331 332 332 332 331 331 331 332 331
340 338 335 333 332 333 334 340 339 336 333 332 328 323 333 335 335 335 334 334 333 332 331 332 331 329 328 329 330 328 327 327 327 328 330 330 329 329 329 329 329 330 330
338 335 334 332 338 335 338 340 339 336 334 331 329 328 334 334 333 332 332 331 330 330 330 329 329 328 328 328 325 324 324 323 323 325 326 325 325 326 325 325 324 326 326
338 336 337 330 331 335 338 338 338 335 332 330 326 329 332 332 331 329 329 330 329 328 328 328 327 327 327 326 324 323 323 323 324 324 322 322 324 324 324 322 322 322 322
340 338 337 334 329 329 333 336 337 336 334 334 333 331 331 331 331 330 330 329 329 328 330 328 326 326 324 322 324 323 322 322 322 323 323 323 321 322 321 322 321 321 320
340 338 337 331 329 329 336 338 336 336 334 331 331 328 332 330 330 329 329 330 330 331 331 328 326 322 319 320 322 321 321 323 321 321 322 320 320 320 320 319 319 318 318
339 337 336 332 329 328 331 337 336 335 334 331 331 331 330 330 329 329 330 330 330 330 330 326 318 313 314 315 317 317 320 321 321 320 319 319 319 320 319 318 318 317 317
336 335 331 332 329 327 327 333 334 333 331 331 330 330 330 329 329 329 329 328 329 329 326 315 311 312 312 312 312 315 318 320 319 319 319 319 319 319 318 317 317 316 316
333 334 332 332 331 329 328 333 333 331 332 331 330 329 329 328 328 329 328 324 324 325 321 314 312 313 314 313 314 315 318 319 319 319 319 319 319 318 317 316 316 315 314
333 331 332 331 331 330 328 330 330 331 330 330 329 329 329 328 329 328 324 320 321 321 321 315 314 315 315 313 313 314 315 317 318 319 319 319 319 318 317 316 315 314 313
332 331 329 330 329 328 327 325 324 331 328 330 329 328 329 329 328 324 321 321 322 321 320 317 317 316 315 314 313 313 316 317 318 319 318 318 318 318 317 316 315 314 313
330 330 327 328 325 329 329 325 325 325 326 329 329 329 329 327 325 320 319 321 321 321 320 318 317 316 318 318 315 313 316 318 318 319 319 318 318 318 316 315 314 313 313
327 324 325 325 326 329 328 326 322 325 327 324 328 327 326 323 317 316 315 316 320 320 323 321 318 320 319 318 316 315 317 318 318 318 318 318 319 318 317 315 314 313 312
324 325 324 323 324 324 323 321 319 320 323 323 326 323 319 318 314 315 314 315 315 316 318 320 319 318 317 314 312 313 316 317 318 318 318 318 318 318 318 316 315 313 312
327 326 324 322 321 320 320 320 319 321 324 323 323 320 316 316 314 314 314 314 314 314 315 316 316 317 316 314 313 311 312 316 318 318 318 318 318 319 319 318 316 314 313
326 325 324 322 320 319 318 319 322 323 324 323 324 319 315 316 315 314 314 314 314 313 313 313 313 314 316 313 312 311 311 314 317 318 318 318 317 318 320 319 318 317 315
326 325 323 322 320 319 318 318 319 320 320 321 322 319 315 316 316 314 314 314 316 315 314 313 312 312 312 311 310 310 310 310 311 314 315 317 317 316 317 318 319 318 317
325 325 323 322 321 319 317 318 320 319 320 322 323 321 316 317 316 316 314 314 316 316 315 314 313 309 308 308 308 308 308 308 308 308 310 311 315 316 315 316 316 316 317
321 323 323 322 322 320 318 317 319 319 321 322 319 319 321 318 317 317 316 316 317 317 316 315 313 310 308 307 306 306 307 307 307 306 306 307 308 308 312 314 316 315 315
320 321 323 323 321 319 318 318 320 319 318 319 318 317 317 320 317 317 317 316 316 318 316 315 315 311 310 309 306 306 306 306 306 306 306 306 307 307 307 309 314 316 316
319 320 320 321 321 320 319 319 320 320 320 319 318 318 319 321 317 317 317 317 317 317 318 318 315 313 311 309 307 306 305 305 305 306 306 306 307 307 307 306 308 313 314
318 318 319 320 321 320 320 320 321 319 321 321 320 319 320 321 317 317 317 317 318 317 317 318 317 316 314 312 311 310 314 311 307 306 306 305 306 306 306 306 305 307 311
318 319 319 319 320 320 320 320 321 320 319 320 321 320 319 319 317 317 317 318 319 318 318 320 319 318 315 313 311 315 315 318 312 309 307 306 306 305 306 306 305 305 305
318 318 319 318 319 319 320 320 321 318 317 319 320 320 318 317 318 319 320 319 320 320 320 321 321 319 317 316 311 311 312 312 315 314 308 308 307 306 306 306 305 305 305
317 316 318 318 318 319 320 320 319 318 318 320 319 320 319 320 320 317 316 316 317 318 319 322 321 320 319 317 315 313 310 308 308 312 316 309 308 309 307 307 306 305 305
316 316 316 318 317 318 318 319 319 318 318 316 317 319 317 316 317 316 316 317 316 315 316 318 320 321 321 317 316 314 314 311 308 308 312 312 311 309 308 307 307 306 305

GFSSE_925_thetae_060.txt.gz
Theta_e
344 344 335 334 337 341 339 339 335 334 335 335 333 326 324 328 334 331 333 335 334 335 336 336 336 336 336 335 334 333 331 331 331 331 332 333 333 333 333 332 332 334 332
343 343 336 341 344 341 339 335 334 333 336 334 330 331 332 333 334 335 336 335 334 334 335 334 333 334 333 333 330 330 330 330 331 331 330 332 332 332 331 330 331 331 330
341 342 337 340 343 344 341 338 335 335 336 334 334 335 335 334 335 336 335 333 333 334 334 331 330 331 332 330 327 327 328 328 326 326 327 328 328 328 328 327 328 328 328
342 342 339 336 341 343 341 340 338 336 335 334 334 333 335 335 334 335 333 331 331 331 331 330 329 329 330 327 325 325 326 324 323 323 324 325 325 325 326 325 325 325 325
341 338 338 334 334 339 343 340 338 339 337 335 336 335 335 334 333 332 331 330 329 329 329 328 329 329 327 323 322 322 322 323 323 323 322 322 321 324 324 322 322 322 322
341 338 337 334 334 340 343 341 340 339 336 335 335 334 333 333 331 329 328 329 329 329 328 328 328 326 324 323 323 323 322 322 322 322 320 321 321 322 320 320 320 320 319
339 340 337 336 331 336 341 341 340 338 336 335 332 333 333 332 331 328 329 328 329 328 328 327 326 324 323 322 322 321 322 322 322 320 321 321 320 320 320 319 319 318 318
337 338 336 335 331 331 337 340 339 338 336 333 332 333 332 332 330 329 330 331 330 328 325 324 323 320 320 318 321 320 321 320 320 320 320 320 320 320 319 318 318 317 316
336 336 334 332 330 330 331 336 333 337 334 332 332 332 332 331 330 331 331 330 328 325 316 315 315 314 314 317 319 319 320 320 320 320 319 319 319 319 318 317 316 316 315
336 333 332 330 329 328 330 331 332 332 332 332 331 331 331 330 330 329 328 329 327 316 312 314 314 313 313 315 318 318 319 319 320 320 320 319 319 318 317 317 316 315 314
335 333 332 331 330 329 328 328 332 332 332 330 330 331 330 331 330 328 328 327 325 314 313 314 315 314 314 315 316 315 319 320 320 320 319 319 319 318 317 316 315 314 314
331 331 331 331 329 329 329 329 331 330 331 331 331 331 330 330 328 326 326 323 323 315 314 316 315 314 317 317 316 318 319 320 321 320 319 318 318 318 317 316 315 314 313
332 329 328 327 327 325 326 327 329 327 326 325 325 329 329 329 325 325 327 327 326 319 321 319 318 320 318 317 317 318 320 320 320 320 318 318 319 318 317 316 315 314 312
329 329 326 328 326 327 327 326 326 327 322 322 322 326 328 324 324 325 326 326 325 323 323 322 321 321 320 317 317 318 319 319 320 320 318 318 318 318 317 315 315 314 313
328 326 325 323 324 326 327 326 325 325 326 324 323 325 326 324 323 322 323 325 324 324 324 322 322 322 319 318 317 318 319 319 320 319 319 318 318 320 319 317 315 314 313
328 327 323 323 323 324 323 322 322 323 323 323 322 325 324 322 321 321 320 320 321 323 323 321 320 320 318 317 317 317 318 319 319 320 319 318 318 319 320 319 317 316 315
328 327 323 323 323 323 322 321 321 322 323 321 321 323 321 320 320 320 319 318 319 319 319 319 319 318 318 317 317 317 317 318 318 319 319 319 317 318 319 320 319 318 317
326 326 324 322 321 323 321 321 319 321 322 321 321 321 319 317 317 318 318 318 317 317 317 318 318 317 316 316 316 316 316 316 317 318 318 318 318 317 317 319 319 318 318
325 325 324 323 321 319 318 321 321 321 323 321 321 321 320 318 316 318 318 319 319 317 316 316 315 314 314 313 314 313 314 314 314 314 314 315 316 316 316 316 317 317 317
325 323 324 323 321 320 317 319 319 321 319 318 321 322 320 317 320 319 318 319 320 319 318 317 316 315 313 312 311 312 312 312 312 311 311 312 312 313 314 316 315 315 316
323 324 322 322 322 320 318 319 320 320 319 318 320 320 319 320 321 321 320 320 321 320 320 319 319 317 315 313 311 311 311 311 310 310 311 311 312 312 312 312 313 315 316
324 324 322 322 320 320 320 318 320 321 320 319 321 320 319 321 321 321 321 321 320 321 321 321 319 319 317 313 316 317 318 314 312 311 311 311 311 312 312 312 311 312 314
322 321 323 323 320 320 320 320 320 320 319 320 320 319 319 322 323 321 320 321 321 321 322 322 321 320 320 317 317 320 322 322 321 316 313 312 310 311 311 311 308 310 312
322 322 322 322 323 321 321 320 321 319 319 319 319 319 320 321 323 322 320 322 323 322 322 322 322 322 321 321 317 317 319 320 322 322 315 313 311 309 309 309 309 311 311
322 321 321 321 322 321 321 321 320 319 319 318 319 320 321 321 322 321 320 323 323 321 322 322 322 321 322 322 321 320 318 318 316 317 319 317 312 311 309 309 310 311 311
322 321 320 320 321 320 321 321 321 320 319 318 320 319 319 319 320 319 317 320 322 319 317 316 318 322 322 322 322 321 321 319 318 316 313 314 316 313 311 311 312 312 310

GFSSE_925_thetae_063.txt.gz
Theta_e
341 347 335 340 344 343 340 336 335 334 334 336 333 329 335 335 332 332 331 334 336 337 339 339 338 338 337 336 334 331 332 332 333 333 333 334 335 335 334 333 333 334 333
344 346 334 338 344 344 340 337 334 334 334 336 332 328 334 335 331 332 334 336 336 337 338 338 337 336 335 335 332 331 331 332 331 332 332 334 334 333 332 331 331 331 331
344 345 339 339 343 344 342 340 338 333 334 335 331 328 333 332 334 336 335 335 335 336 336 336 335 334 334 331 331 331 329 328 329 329 329 330 330 331 330 329 329 328 328
343 344 341 339 343 344 343 341 341 337 337 334 331 330 333 333 336 336 334 333 334 334 334 334 334 333 330 329 328 327 325 325 326 327 327 327 328 328 328 327 327 326 326
343 343 342 339 340 342 343 341 340 339 337 335 330 332 334 336 336 334 332 333 332 331 331 331 332 331 327 327 326 323 322 323 325 325 324 325 327 326 325 325 324 324 323
342 343 342 339 336 341 341 341 338 339 338 335 334 335 336 336 335 333 331 331 331 330 330 329 330 327 325 325 325 320 323 323 322 323 323 323 323 323 323 322 321 321 320
341 343 339 339 336 333 336 337 337 339 337 335 336 336 336 335 333 331 330 329 329 329 330 329 328 323 321 321 320 322 322 321 321 322 322 322 322 322 321 320 320 319 319
340 340 340 337 336 332 334 335 336 338 336 335 335 335 335 333 331 328 330 330 329 328 327 327 324 322 322 321 321 322 322 321 322 322 321 321 321 320 320 319 318 318 318
338 337 339 339 336 331 331 333 335 337 336 335 334 334 333 330 327 328 330 328 327 325 325 322 322 321 320 321 321 320 320 321 321 321 320 320 320 320 319 318 317 317 317
338 336 336 334 332 329 322 328 333 336 336 334 334 334 332 328 328 330 331 327 321 317 316 319 320 318 319 320 319 320 320 321 321 321 320 319 320 319 318 317 317 316 316
337 336 335 331 329 325 323 327 328 329 335 332 333 333 331 330 331 331 331 327 314 315 315 315 314 314 317 317 319 320 321 321 321 321 319 319 319 319 318 317 316 315 315
334 336 334 332 330 327 326 327 325 325 333 332 333 331 329 331 331 330 331 326 313 315 314 313 313 313 317 317 319 319 322 322 321 321 319 319 319 318 317 316 316 315 314
334 332 333 332 332 330 329 328 326 329 333 333 332 331 329 329 329 329 328 321 318 317 320 318 314 318 317 316 320 322 322 322 321 320 319 318 319 318 317 316 315 314 313
331 330 331 331 330 329 328 327 327 326 330 330 331 328 329 327 327 328 327 324 321 322 321 319 320 320 319 318 320 322 322 322 321 320 319 318 318 319 318 316 315 314 313
330 329 329 330 329 329 328 327 327 328 326 327 326 325 326 326 326 327 327 326 323 324 322 321 323 321 319 319 320 322 321 322 321 320 320 318 318 318 317 317 316 315 313
330 330 330 327 328 327 327 326 325 327 325 323 322 323 326 326 326 326 326 326 324 324 323 322 323 321 319 319 320 321 321 322 321 321 320 319 318 319 318 318 317 316 315
330 330 327 325 325 325 324 326 326 325 325 322 320 321 321 324 324 326 326 326 325 324 323 322 322 321 319 319 319 320 320 321 321 321 320 319 319 319 319 319 318 317 317
329 329 326 324 324 325 324 322 323 324 324 323 323 321 319 320 322 323 323 323 323 324 323 321 320 320 319 318 319 319 319 320 320 321 321 320 319 319 319 320 319 318 318
328 330 327 324 324 324 324 322 322 323 323 322 320 319 318 322 321 322 321 321 321 321 321 320 319 319 319 318 318 318 318 318 319 319 319 320 320 319 319 319 319 319 318
329 328 327 325 324 322 322 321 322 321 321 319 319 321 322 321 320 320 320 320 319 318 318 319 319 318 317 317 316 316 317 316 317 316 317 317 318 318 318 319 317 319 318
328 328 326 324 322 320 321 321 321 322 320 319 320 321 320 319 318 317 319 320 320 319 318 318 318 317 316 315 314 315 315 315 315 315 314 314 314 315 316 317 318 317 317
327 326 324 324 322 320 320 321 321 321 321 320 319 321 321 317 320 316 320 320 321 321 320 320 320 320 318 315 314 314 317 316 315 315 314 313 313 314 314 314 314 316 317
327 326 325 322 322 320 320 320 321 320 320 319 320 319 319 321 320 321 322 322 321 323 323 322 322 322 320 318 317 320 321 321 320 316 314 314 314 314 314 314 314 314 313
326 325 326 324 321 322 320 319 320 320 321 319 318 321 318 318 321 321 319 321 322 322 323 323 324 323 322 322 320 319 321 322 324 323 318 316 315 313 313 313 313 314 313
326 325 323 325 324 323 323 321 320 320 321 321 319 320 320 317 320 321 321 320 322 323 323 324 324 324 324 322 323 322 321 321 322 322 324 318 316 314 312 313 310 312 312
325 325 324 323 324 324 322 322 321 320 320 320 321 320 319 319 320 320 321 320 318 322 323 323 322 324 324 323 322 323 322 322 321 321 321 322 320 317 314 317 318 314 313

GFSSE_925_thetae_069.txt.gz
Theta_e
344 342 342 339 336 336 336 334 334 334 335 333 332 331 332 334 335 334 333 329 326 328 337 339 338 339 339 338 336 335 335 335 335 335 334 336 337 336 334 334 334 334 334
344 340 344 341 337 336 336 335 334 334 333 332 329 329 331 331 332 330 326 324 327 333 337 338 337 338 338 335 333 333 333 334 334 334 334 335 335 334 333 332 332 332 332
346 339 342 344 339 337 336 335 336 336 334 331 328 326 329 330 326 328 328 334 336 337 337 335 336 336 335 332 332 332 332 333 332 332 331 332 332 332 331 329 329 330 330
347 345 336 342 343 341 339 337 336 336 335 332 329 327 329 328 329 333 336 337 337 337 337 337 336 335 331 330 330 330 331 330 330 329 330 330 330 331 330 329 328 328 328
342 345 343 336 342 344 342 339 339 338 335 334 331 327 328 328 333 335 336 336 337 337 337 337 334 331 328 328 327 328 329 328 328 328 328 328 329 329 328 327 326 326 324
337 343 344 341 336 343 343 341 339 339 337 334 331 330 330 333 336 335 334 335 335 336 336 335 332 328 327 325 327 328 328 327 326 326 325 326 325 326 325 324 323 323 323
340 341 343 342 339 338 341 343 339 339 338 334 330 330 334 335 336 335 334 334 334 334 333 331 328 325 324 326 327 328 326 325 324 324 324 323 324 324 323 322 320 321 320
340 341 342 340 339 339 336 339 340 338 338 335 331 332 328 336 335 334 333 332 333 332 330 328 326 323 323 323 323 323 323 323 322 322 322 322 322 322 321 320 320 319 319
339 340 341 341 338 337 337 337 337 336 334 335 333 331 328 335 334 332 331 330 330 329 328 327 325 321 323 322 322 322 322 322 321 320 321 321 321 320 320 319 318 318 317
338 337 335 340 339 336 335 335 334 332 329 325 329 332 334 334 332 331 330 329 328 327 326 325 325 320 322 321 321 322 321 321 320 320 321 320 320 320 319 318 318 318 317
335 335 334 335 338 337 334 333 332 330 329 328 325 324 332 333 332 330 329 328 327 325 322 321 319 320 321 321 322 321 320 320 319 319 319 319 320 320 319 318 318 317 317
336 338 336 335 334 333 332 329 326 324 328 326 325 324 333 332 330 329 328 327 326 322 320 318 318 321 321 321 321 321 320 320 319 318 319 319 320 319 318 318 317 316 316
335 336 336 334 332 330 328 326 325 327 326 325 325 325 332 331 330 328 328 325 324 321 319 317 320 321 320 320 321 321 320 320 318 317 319 319 319 319 318 317 316 316 315
334 333 334 334 332 331 330 329 328 327 326 322 324 326 332 331 330 328 326 323 321 320 316 317 317 319 320 320 322 322 320 319 318 317 318 318 319 318 318 317 316 315 315
332 333 332 331 333 330 328 327 328 327 326 325 327 325 331 330 329 326 322 320 319 315 312 314 314 319 319 321 322 322 320 320 318 317 318 318 317 318 318 317 316 315 314
330 330 331 330 330 328 327 327 327 326 326 326 331 330 329 330 328 323 319 318 317 312 311 313 313 318 319 319 322 322 321 320 319 316 317 317 317 317 317 317 316 315 314
330 329 330 330 328 328 327 327 327 327 326 327 329 329 329 329 327 321 317 317 315 313 311 318 319 316 318 321 321 322 320 320 319 316 317 317 317 317 317 317 317 316 315
329 329 328 328 328 327 327 327 326 327 326 327 328 328 328 328 326 322 318 318 319 315 314 320 322 319 319 320 321 322 321 320 320 318 317 316 316 317 317 317 316 316 316
329 329 327 326 326 325 326 325 326 326 327 326 327 327 327 327 326 323 317 322 323 317 319 321 323 320 320 320 321 321 321 321 320 319 317 316 317 317 317 317 317 317 317
330 328 326 325 325 324 324 324 323 325 326 327 326 326 326 326 325 324 319 323 325 321 322 321 321 320 320 320 320 320 321 321 321 320 319 318 317 317 318 318 318 317 317
330 329 327 326 326 324 323 323 322 324 324 324 323 324 325 324 325 325 323 321 325 323 323 324 321 320 320 320 319 319 320 320 321 321 321 320 319 318 318 318 318 318 318
329 329 326 325 325 324 322 323 322 321 322 323 323 322 323 324 324 324 324 323 322 323 323 321 321 321 320 320 318 318 315 317 320 319 319 320 320 319 319 319 319 318 318
328 328 326 325 324 323 322 322 321 321 321 321 321 322 322 321 322 322 322 321 320 322 321 320 320 319 318 317 316 317 314 315 314 316 317 317 317 317 319 319 318 319 319
327 327 326 324 323 323 322 322 321 320 320 320 320 320 320 321 322 320 321 321 320 319 318 319 318 318 317 316 316 316 316 318 316 316 315 315 315 315 315 315 314 316 317
327 327 325 324 324 322 322 322 320 319 320 319 319 319 319 320 320 319 320 319 318 318 317 318 318 318 316 315 316 315 315 317 320 318 315 315 315 315 314 314 314 314 314
327 326 325 323 321 322 322 321 320 319 319 318 319 320 319 321 320 320 320 318 317 318 320 319 318 318 318 319 319 317 315 317 319 320 316 316 315 315 314 314 314 314 314

GFSSE_925_thetae_072.txt.gz
Theta_e
345 341 340 339 335 333 332 332 334 335 334 333 334 336 339 339 338 337 336 334 335 339 340 339 334 338 341 341 338 337 336 335 336 336 337 338 337 337 335 335 335 334 334
342 341 341 340 336 333 332 331 332 334 333 332 332 335 336 336 336 336 335 334 336 338 339 340 337 338 340 338 336 335 335 334 335 335 335 336 335 335 334 333 333 333 333
343 341 341 340 337 334 333 331 332 334 332 331 332 332 334 335 334 331 330 332 336 336 338 338 336 337 338 336 334 334 334 334 334 334 333 333 334 334 332 330 330 330 332
344 340 340 340 338 336 334 333 333 334 332 330 329 331 332 331 329 328 331 333 335 336 335 336 335 336 335 334 333 333 333 332 331 332 331 331 331 332 329 329 330 328 328
344 341 339 340 340 339 337 335 335 334 332 329 329 330 329 327 326 332 334 336 335 335 336 336 335 335 332 332 332 332 331 330 329 329 329 329 329 331 329 328 328 327 326
342 342 341 338 341 341 340 338 337 335 333 329 326 328 327 326 329 334 335 336 336 336 335 335 334 331 331 330 329 329 328 328 328 327 327 328 328 329 326 325 324 323 323
341 342 343 340 338 340 342 340 338 336 334 331 328 329 329 331 334 335 336 337 336 335 334 333 331 330 329 330 328 327 327 327 326 326 325 325 324 326 324 324 323 322 322
339 341 343 340 339 338 338 340 340 338 336 334 332 332 332 335 336 335 335 335 334 334 332 330 329 328 328 329 326 326 325 325 324 324 322 323 323 323 321 322 320 320 320
339 340 341 340 340 341 341 338 338 337 338 335 333 332 325 331 334 334 334 334 333 331 330 329 327 327 326 323 325 325 324 324 323 321 321 321 321 321 321 320 320 319 319
338 339 339 340 338 338 338 339 337 336 333 328 331 330 327 329 332 332 333 333 332 329 328 326 324 323 321 323 323 323 322 321 321 320 320 320 320 320 320 319 319 319 318
336 335 335 336 337 337 336 337 336 334 334 331 331 329 328 331 331 332 332 332 330 327 327 324 322 322 320 322 322 321 320 319 319 320 320 320 320 319 319 319 319 319 318
334 334 334 335 337 336 334 333 333 331 332 330 327 327 326 324 332 331 330 329 328 326 326 323 321 321 321 321 321 320 320 318 319 319 319 319 320 320 319 318 318 318 317
335 336 335 335 334 335 333 331 330 329 329 329 328 325 324 325 331 330 329 327 326 326 325 324 321 321 321 320 320 320 319 317 317 319 319 319 320 319 319 318 317 317 316
335 335 336 334 332 331 330 327 326 325 325 326 326 325 324 324 331 330 328 327 324 322 321 320 320 320 320 320 321 320 319 318 317 318 318 319 319 319 319 318 317 316 315
334 333 334 333 331 330 328 328 327 326 326 327 325 325 325 329 330 329 327 326 322 319 318 318 321 320 319 320 321 320 319 318 317 318 318 318 318 319 318 317 317 316 315
332 331 332 332 331 330 329 328 327 327 326 324 324 325 328 330 328 327 326 324 320 318 316 320 321 319 320 320 322 320 319 318 317 318 317 317 318 318 318 317 317 316 315
330 331 331 331 330 328 326 326 326 327 325 326 323 324 329 328 328 326 325 322 319 315 315 318 318 319 321 318 322 320 320 318 317 317 317 317 317 317 317 317 317 316 315
329 330 330 330 329 328 326 326 325 325 326 326 328 325 329 327 326 324 321 318 317 312 314 313 317 319 320 319 322 320 319 318 317 317 317 317 316 317 316 317 317 317 316
328 329 330 328 328 327 326 326 326 326 326 328 329 329 328 326 325 320 316 316 313 311 312 314 317 316 318 321 321 320 319 319 317 317 316 316 316 316 316 316 315 316 315
328 328 328 327 326 325 325 326 326 326 327 328 328 328 328 327 325 317 316 314 312 310 316 318 317 318 319 320 321 321 320 319 318 317 317 316 315 316 316 316 316 316 316
327 327 326 325 325 325 324 324 325 324 326 327 327 327 327 327 324 320 317 317 314 312 318 320 322 321 319 320 320 319 321 320 319 319 318 316 316 316 316 317 317 317 317
326 326 325 324 324 324 325 323 323 324 325 326 326 327 327 327 326 322 317 321 320 316 316 319 321 319 319 320 319 318 315 317 319 319 319 318 318 317 317 317 317 317 317
326 326 326 325 324 324 323 322 322 321 323 324 324 324 325 326 326 324 320 323 324 321 320 323 322 319 319 319 319 318 314 316 315 318 319 319 319 319 319 318 318 318 318
326 326 326 325 325 324 323 322 321 320 321 322 323 323 325 324 324 324 324 321 324 324 322 323 322 320 319 318 317 318 318 317 315 314 316 317 319 320 319 319 319 319 319
326 325 325 324 324 323 323 322 322 320 321 320 322 322 322 323 323 322 323 324 323 323 323 322 319 318 319 318 317 316 317 317 316 314 313 313 314 316 317 318 317 318 318
325 325 324 323 323 323 322 322 321 321 320 319 320 321 320 321 322 322 321 322 320 321 322 322 318 320 318 317 316 317 316 317 318 318 314 313 314 315 315 315 315 316 315

GFSSE_925_thetae_078.txt.gz
Theta_e
342 342 343 339 341 339 337 336 335 337 341 342 341 341 338 337 337 338 339 336 336 340 340 340 339 340 341 341 338 338 338 338 338 338 338 338 339 338 336 336 336 336 335
338 338 338 337 338 337 337 336 335 335 340 341 341 340 338 337 338 338 337 336 339 340 339 338 339 340 340 339 338 338 337 337 337 337 336 337 337 337 335 335 335 335 335
338 337 337 337 338 337 336 336 335 335 338 340 340 339 338 338 338 337 335 336 338 339 340 340 339 340 339 338 337 337 336 336 336 336 336 336 337 336 335 335 334 334 334
340 338 337 338 340 337 336 336 335 336 336 339 340 338 338 338 338 336 335 338 338 338 339 340 340 338 338 337 336 336 336 335 335 334 334 334 335 335 334 333 333 333 333
340 338 337 338 341 338 336 337 335 335 337 339 341 340 339 338 337 335 335 338 337 338 338 340 340 338 336 335 335 335 335 335 334 333 333 333 334 334 333 332 331 331 331
341 337 337 338 339 340 335 336 339 334 336 338 340 341 341 338 336 335 336 336 335 336 337 339 337 336 335 334 334 334 333 332 333 332 332 332 331 331 328 327 327 327 328
340 338 338 338 339 339 336 335 338 337 333 335 339 341 340 338 337 335 335 334 333 334 337 337 335 336 334 333 333 333 332 331 330 330 329 328 328 327 326 325 325 324 325
339 340 339 339 339 338 337 335 334 334 334 333 335 338 338 337 335 334 333 333 333 333 336 335 335 334 333 333 332 331 330 329 329 328 327 326 326 327 325 323 323 322 322
340 340 340 340 340 340 339 338 336 334 334 334 335 334 334 329 325 329 332 332 333 335 334 333 334 333 332 331 330 329 328 327 327 326 325 325 325 326 323 322 321 320 320
338 339 340 340 342 343 342 340 340 337 335 334 334 333 330 328 329 329 331 333 332 333 333 333 332 331 331 330 329 328 327 326 325 324 324 323 323 323 322 320 320 320 319
338 339 340 341 341 344 341 342 338 338 337 334 332 328 326 325 325 324 329 332 333 332 332 332 331 330 329 327 327 326 326 325 324 323 322 321 322 322 321 320 320 319 318
338 339 339 339 340 340 339 338 337 337 336 333 330 326 324 324 324 324 330 331 331 331 332 331 328 327 326 326 325 325 324 323 322 321 320 320 321 321 321 319 318 318 318
337 337 337 337 337 337 337 334 333 335 334 330 328 326 325 324 325 327 326 327 329 330 331 329 328 326 326 325 324 323 322 320 320 319 319 320 320 319 319 319 319 319 318
335 335 334 334 337 334 334 332 333 334 332 328 327 326 326 326 327 329 329 329 328 329 329 326 324 324 325 324 323 322 321 319 319 319 319 319 320 321 320 320 319 318 317
333 333 333 336 333 332 332 332 333 333 332 330 329 327 327 328 329 327 325 329 328 329 327 321 322 323 324 323 321 320 319 318 318 319 319 319 319 319 320 320 319 317 316
333 333 333 334 331 330 330 330 332 332 331 330 328 327 327 327 328 328 328 328 328 328 325 321 321 322 322 321 320 319 318 317 318 319 319 319 319 319 319 319 318 317 317
332 333 334 331 329 330 330 329 330 330 330 328 328 327 327 327 326 327 327 328 328 327 324 321 321 322 321 320 319 318 317 317 318 318 318 318 318 318 318 318 318 317 316
332 333 333 331 328 329 329 327 326 325 326 325 327 328 327 327 326 326 328 327 327 327 324 321 320 321 320 320 319 318 317 317 318 318 318 318 318 318 318 318 317 317 316
331 333 331 329 328 329 329 328 328 325 325 325 325 324 325 326 325 327 327 326 326 326 324 320 319 320 319 318 319 318 318 318 318 318 318 317 317 317 317 317 317 316 316
331 332 329 331 327 329 326 326 324 323 324 324 325 325 324 325 326 327 326 325 325 324 323 320 319 319 320 319 318 318 318 318 318 318 318 317 317 317 317 317 316 316 316
331 329 328 330 328 327 326 324 323 323 324 324 325 326 325 324 326 327 327 325 323 323 323 320 318 318 319 318 317 316 316 317 317 318 317 317 317 316 316 316 316 316 316
327 326 327 327 328 328 325 324 323 323 324 325 327 325 323 323 323 324 323 323 322 319 319 318 317 316 318 319 318 317 316 316 316 317 317 317 317 316 316 315 315 315 315
326 326 326 326 328 325 324 324 324 323 323 325 326 324 324 325 325 324 324 322 320 318 317 318 317 316 318 319 319 318 315 318 316 317 316 316 316 316 316 316 316 315 316
325 325 325 325 326 323 323 322 323 322 323 324 326 326 325 326 324 322 321 322 318 317 316 317 317 316 318 318 318 318 320 318 318 314 316 317 316 316 316 316 317 317 317
325 324 325 325 324 323 322 322 322 322 322 323 324 325 326 325 324 322 320 321 317 315 314 315 316 317 317 318 318 318 317 316 318 314 314 315 317 317 318 317 318 318 318
324 324 324 324 324 321 320 321 321 321 322 322 322 322 324 325 323 323 321 319 316 314 313 314 315 318 318 318 319 319 318 316 316 315 312 313 316 318 319 318 318 318 317

GFSSE_925_thetae_081.txt.gz
Theta_e
342 341 340 338 336 339 339 338 337 338 341 341 339 339 338 338 339 339 341 341 341 341 342 342 340 341 342 342 339 338 338 338 339 338 339 338 339 338 337 337 338 338 336
338 340 341 337 336 339 338 336 336 340 342 342 341 340 338 338 338 339 339 338 340 341 342 341 340 340 341 339 338 338 338 337 337 337 337 338 338 339 336 336 337 336 335
338 339 341 337 338 338 337 336 336 341 342 342 341 340 338 338 338 339 338 337 340 340 342 342 341 341 340 338 337 337 337 337 336 336 337 339 338 338 335 335 335 335 335
337 338 339 338 340 337 337 336 336 340 342 342 341 340 338 338 337 338 336 338 339 339 340 342 342 341 339 338 336 336 336 336 336 336 337 337 338 336 335 334 334 335 334
338 337 337 338 344 338 337 335 336 337 342 342 341 340 339 338 336 336 335 337 338 338 339 341 341 339 338 337 336 336 336 335 335 335 335 337 336 335 334 334 333 333 334
339 338 337 338 343 343 336 336 335 335 340 345 342 340 338 337 337 336 335 336 337 337 338 339 339 338 337 336 336 335 335 334 334 335 336 335 335 333 331 331 331 331 330
338 338 337 338 343 342 337 336 335 334 335 339 343 340 338 338 337 335 335 336 337 337 338 338 338 337 336 335 335 335 335 333 335 335 334 334 333 331 328 328 328 328 328
335 337 337 338 340 342 342 336 335 334 334 336 344 342 340 337 337 335 334 335 334 334 337 338 337 336 335 334 334 334 333 332 332 332 332 331 329 327 326 325 325 325 325
338 338 338 338 340 342 341 337 336 336 333 334 338 341 335 335 335 333 333 332 331 333 334 336 336 335 334 334 333 332 331 330 330 330 330 330 326 325 325 323 322 322 322
339 339 339 339 340 341 341 341 337 336 335 333 333 335 333 333 333 331 326 328 330 333 334 335 335 334 333 333 332 330 330 328 328 328 328 328 325 326 324 322 320 320 320
339 338 339 340 342 340 340 339 340 338 337 335 333 333 333 331 327 324 323 324 328 332 335 333 334 333 332 331 330 329 327 327 327 326 327 324 324 324 321 321 320 321 320
336 338 339 340 342 339 339 338 339 339 337 336 334 333 331 326 325 324 324 324 328 331 332 332 332 332 330 329 327 327 325 325 325 324 324 323 322 322 322 320 319 319 319
336 337 338 339 341 342 339 339 340 339 336 335 333 332 328 326 325 325 325 326 330 331 331 331 331 330 329 328 326 325 324 324 323 323 322 321 322 323 321 319 319 318 318
335 336 336 336 337 338 338 338 337 336 334 334 331 329 326 325 325 327 328 327 328 330 330 331 330 328 327 325 324 324 323 322 322 321 320 321 321 321 319 320 320 320 318
335 335 336 337 334 334 334 336 332 332 333 332 331 327 325 326 327 328 328 329 329 329 329 330 328 326 325 324 324 323 322 321 320 320 319 319 319 320 322 321 321 319 318
334 334 334 334 332 332 331 332 331 331 331 331 330 327 326 326 327 328 328 327 328 328 327 328 326 325 325 324 323 322 321 320 320 320 320 320 319 319 320 321 321 319 317
332 332 332 332 332 331 330 330 329 330 331 331 329 327 327 327 327 328 328 328 328 327 327 325 325 324 323 323 322 321 320 319 319 319 320 320 319 318 319 318 319 318 317
332 332 331 331 331 329 329 329 328 330 331 331 330 329 328 326 328 328 328 327 327 327 326 322 323 322 322 322 321 320 319 319 319 320 319 319 319 318 318 318 317 317 317
331 331 331 331 330 328 329 329 327 328 329 328 327 327 327 327 326 328 328 326 327 326 325 321 321 321 321 321 320 320 319 319 319 319 319 320 320 319 319 318 317 316 316
330 331 331 329 328 327 328 327 326 325 325 325 326 325 326 326 325 327 327 326 326 326 321 319 320 321 321 321 319 319 319 319 319 319 320 319 319 319 319 319 318 317 316
329 329 329 328 327 327 327 326 325 324 324 324 325 324 324 324 325 326 327 326 326 325 320 319 319 320 320 320 319 318 318 318 319 319 319 319 319 319 318 318 318 317 317
329 328 327 327 327 326 325 324 323 323 324 324 325 325 325 325 325 325 325 324 324 322 320 318 318 320 320 319 320 320 320 319 318 318 318 319 319 318 318 318 318 317 317
329 328 327 326 326 325 325 324 323 323 323 325 326 326 325 325 324 324 324 322 322 321 320 318 318 320 320 319 320 321 321 323 320 318 318 318 318 318 317 317 317 316 314
329 328 326 325 324 324 325 324 323 323 324 324 325 324 321 322 324 323 323 324 324 321 319 319 318 319 319 320 320 319 321 321 323 322 318 318 318 318 318 317 317 317 317
328 327 324 323 323 324 325 323 323 322 323 324 325 325 323 322 321 321 321 324 321 320 319 319 317 317 319 320 320 319 318 319 321 322 323 319 318 318 318 318 318 318 317
327 325 322 322 322 323 324 323 322 323 323 323 325 324 324 324 323 322 322 322 321 320 318 318 318 317 318 319 319 319 318 319 319 319 320 320 320 319 318 318 318 318 317

GFSSE_925_thetae_084.txt.gz
Theta_e
344 344 334 334 335 336 341 341 338 339 342 339 336 335 337 339 339 340 341 341 341 343 344 343 341 344 342 341 336 337 339 339 340 340 339 340 340 339 337 338 339 339 337
344 346 336 334 336 337 339 340 339 338 340 341 339 337 338 339 340 341 341 341 342 343 343 342 341 343 342 340 338 338 338 339 339 338 339 340 339 338 337 338 338 338 337
345 347 340 335 337 339 339 338 337 338 341 342 341 339 338 339 340 341 341 342 341 341 341 342 342 342 341 339 337 338 338 338 338 337 337 339 340 338 337 337 335 336 336
344 346 346 338 336 339 338 337 337 339 342 343 342 340 339 340 342 341 340 340 340 340 340 342 343 341 340 338 337 338 337 337 336 337 338 338 338 336 336 335 335 336 335
344 344 346 337 336 339 337 336 336 339 342 344 343 343 340 343 342 339 338 339 340 340 340 341 341 340 338 337 337 337 336 336 336 337 338 337 337 336 335 335 335 334 334
343 343 343 337 339 338 337 336 336 339 342 343 344 344 343 339 338 339 337 339 339 339 339 340 339 339 338 337 336 336 336 336 336 338 337 337 336 335 334 334 334 333 333
343 344 340 336 337 336 337 336 336 336 342 345 344 341 340 339 339 338 336 337 338 338 338 337 338 339 337 336 336 336 335 335 336 336 336 336 335 333 332 331 331 331 331
344 345 344 338 338 339 336 336 336 336 337 343 342 339 340 338 338 336 335 334 334 335 335 335 337 338 337 336 336 335 334 335 335 335 335 335 332 332 329 328 328 328 328
344 344 343 342 341 340 341 337 336 335 336 335 338 337 336 336 335 334 334 334 333 333 333 335 337 337 336 335 335 334 334 334 334 334 334 332 329 329 327 327 326 326 326
345 344 339 342 343 343 342 339 336 336 335 335 335 336 336 334 334 334 333 333 332 330 332 334 335 335 335 335 334 334 332 333 332 332 331 331 328 328 326 325 323 322 323
344 345 344 342 343 342 343 342 338 337 338 335 334 334 336 336 334 334 332 331 328 326 329 332 334 334 333 333 333 332 331 331 331 330 330 327 327 326 324 322 322 320 320
341 343 343 342 343 343 344 341 341 342 339 338 337 334 336 336 333 333 331 326 324 324 329 331 331 332 331 332 331 330 330 329 329 328 328 325 325 325 324 322 321 322 320
339 340 342 342 344 343 341 339 339 340 339 338 337 333 334 335 333 329 328 326 327 324 325 330 330 330 331 331 330 330 329 329 327 326 326 323 323 324 323 321 320 321 320
337 339 339 340 342 341 339 338 338 338 336 337 336 335 333 333 333 331 329 328 327 325 328 328 332 331 330 330 329 329 327 326 325 324 323 322 322 324 323 321 320 319 319
337 339 338 338 339 337 336 336 337 336 335 336 334 333 332 331 331 329 329 330 330 330 330 329 331 330 330 329 328 327 326 325 323 322 322 321 322 322 320 319 321 321 319
333 337 338 337 337 337 338 335 334 334 337 335 333 333 330 329 330 330 330 330 329 329 330 329 330 329 329 328 327 326 325 323 322 321 320 321 320 319 322 322 322 321 319
331 336 338 336 336 336 336 336 335 334 333 332 332 330 329 329 329 330 331 331 329 328 328 329 329 328 328 327 327 325 324 322 320 320 320 320 320 319 321 320 321 320 318
331 335 337 335 335 335 335 333 332 330 331 331 331 330 329 327 328 328 329 329 328 328 328 327 328 327 326 326 326 325 322 320 320 320 320 321 321 321 320 319 319 318 318
332 335 337 334 335 336 334 332 332 328 329 330 330 330 329 328 327 326 328 330 328 326 327 327 327 327 326 325 325 324 322 321 321 320 320 320 320 319 320 319 318 317 317
332 335 336 335 335 334 331 330 330 328 329 330 330 330 329 329 328 328 329 329 328 325 325 326 326 325 326 325 323 323 323 322 322 321 320 320 320 319 320 320 318 317 316
332 335 336 335 334 332 330 330 328 329 327 327 326 326 327 327 327 327 328 328 327 324 324 325 326 325 325 324 323 322 322 322 322 321 321 321 320 319 319 319 318 318 317
332 334 335 334 333 331 329 328 328 327 327 328 327 328 328 326 326 326 327 327 326 324 323 324 325 325 325 324 323 322 323 322 322 322 322 321 320 319 319 319 318 318 318
330 334 333 332 333 330 329 328 328 327 326 326 327 328 327 326 325 325 325 325 325 324 322 322 324 324 325 324 323 323 323 325 322 322 321 321 320 320 318 318 319 318 318
329 333 331 332 332 329 328 328 327 326 325 326 326 325 325 324 324 325 325 325 324 324 322 321 323 324 324 324 324 323 321 320 324 325 322 322 321 321 320 318 318 318 318
329 333 331 331 331 328 328 328 326 325 325 327 326 325 324 323 323 324 324 323 323 323 322 322 322 324 324 324 323 323 323 324 322 322 324 323 322 322 321 320 320 319 319
329 332 330 328 328 328 329 328 326 325 325 325 325 324 323 321 321 321 321 321 321 321 321 322 322 323 323 323 323 323 323 324 323 323 323 322 322 322 322 321 321 321 321

GFSSE_925_thetae_087.txt.gz
Theta_e
342 343 336 337 340 344 342 342 344 343 342 339 336 336 336 338 340 340 341 341 342 342 345 345 344 341 340 339 339 337 336 338 338 339 340 341 341 338 337 338 340 340 337
343 343 334 334 335 337 343 340 340 343 342 340 336 335 337 339 340 340 342 342 341 342 345 345 343 343 343 339 337 338 339 339 339 339 340 340 340 339 338 339 339 338 337
344 345 335 333 334 335 340 341 339 339 341 341 339 336 337 339 338 341 342 341 342 344 344 344 343 342 341 339 338 339 339 339 338 338 338 339 340 338 338 338 336 337 337
343 345 345 334 336 337 339 339 339 339 341 342 341 340 338 339 340 339 340 342 343 344 343 343 343 343 340 338 338 338 338 337 336 337 339 338 339 338 336 336 336 336 336
338 343 347 334 335 338 338 338 338 338 339 343 343 341 341 340 340 339 339 342 342 341 341 343 343 341 340 338 338 338 337 336 337 338 338 338 338 337 337 336 334 335 336
339 341 343 335 334 336 337 337 337 338 342 345 344 342 341 339 339 338 338 340 340 340 339 341 340 340 338 337 337 337 336 336 338 337 337 337 337 336 335 335 335 335 334
341 342 342 334 333 337 337 336 337 338 345 345 346 344 342 340 339 338 338 338 339 339 337 337 337 338 338 337 337 336 336 336 336 337 336 336 336 337 334 334 333 333 333
342 344 346 335 335 336 337 336 336 338 345 347 344 342 341 340 338 338 337 335 336 336 335 335 335 338 337 337 336 336 335 336 336 337 336 335 334 333 334 332 332 331 330
343 345 346 344 341 337 337 336 336 337 339 345 339 341 339 339 338 337 336 335 334 333 332 333 333 337 337 336 334 335 334 334 335 335 334 334 332 331 330 329 329 328 328
345 346 347 346 344 343 342 338 337 338 338 339 337 338 337 337 337 336 335 333 332 332 332 332 330 332 333 333 332 334 334 333 334 334 333 332 330 331 330 329 328 327 326
345 345 346 345 345 344 343 342 338 337 337 338 337 334 336 337 336 335 334 333 332 332 330 328 328 329 330 332 333 333 332 333 333 332 333 328 328 328 327 325 324 324 323
343 345 346 345 344 344 342 343 342 341 340 339 338 338 336 336 337 335 334 333 329 330 327 326 328 325 330 332 332 331 332 332 331 330 330 327 327 327 325 324 323 322 321
340 342 345 345 344 345 343 343 341 342 342 341 339 339 337 336 336 336 334 331 330 329 326 326 328 329 330 333 332 332 331 330 329 329 328 326 326 326 324 323 323 322 320
338 340 343 344 344 343 341 340 340 343 343 341 340 339 337 336 336 334 334 333 330 327 327 327 330 329 331 332 332 331 330 329 328 328 326 324 324 325 324 323 323 322 321
336 338 343 342 342 342 341 340 340 341 340 338 339 338 337 335 335 334 332 331 331 330 328 326 326 329 332 331 331 330 328 327 325 326 325 323 323 324 324 322 321 320 320
330 336 342 342 341 341 341 339 337 338 337 337 336 337 337 335 334 334 333 331 330 332 328 325 327 330 331 331 330 329 326 325 324 323 324 323 322 322 321 321 322 322 321
325 331 340 342 341 341 339 340 337 338 335 335 334 336 335 335 334 332 331 331 332 331 329 327 326 329 330 329 328 327 325 324 323 322 323 323 322 320 319 321 322 322 320
323 326 337 341 340 340 339 339 338 335 334 335 335 335 334 333 332 332 332 332 331 330 329 328 327 327 328 329 327 325 324 323 322 321 321 321 321 320 321 322 321 319 318
323 327 335 341 339 339 339 338 336 334 333 334 335 333 332 332 332 332 332 331 330 329 328 328 329 326 327 327 326 325 323 321 321 320 321 321 321 321 322 320 319 318 318
323 329 335 341 339 339 339 336 334 332 332 332 332 331 332 330 330 329 329 328 329 328 329 328 326 325 326 326 325 323 322 322 321 320 320 321 321 321 321 322 320 318 317
326 332 336 340 338 339 337 333 332 331 331 331 329 329 330 330 329 328 328 327 328 328 328 328 327 325 326 325 325 323 323 322 323 322 321 320 321 320 321 322 320 318 318
329 333 336 339 338 338 334 333 332 331 330 331 331 329 328 329 328 328 328 329 328 327 327 327 326 325 324 325 324 323 324 322 323 322 322 321 321 320 320 321 321 319 319
329 333 336 338 338 337 334 333 331 330 329 329 329 328 331 330 329 327 327 327 327 327 326 326 326 325 325 324 324 324 324 324 323 323 323 322 322 321 320 320 319 320 319
329 332 335 337 337 336 334 333 331 330 329 328 328 329 330 329 329 328 327 327 326 325 325 325 325 325 324 325 324 323 321 321 325 326 323 323 322 321 320 320 319 319 319
326 330 335 336 335 336 334 332 331 329 328 327 328 328 328 327 325 325 325 326 325 325 325 325 324 325 324 325 324 324 323 322 323 324 325 324 323 322 322 321 320 319 319
324 331 336 335 335 333 333 332 331 329 327 327 328 328 327 325 323 322 323 325 325 324 323 324 323 321 324 324 324 324 324 324 324 323 325 324 324 322 322 322 321 320 320

GFSSE_925_thetae_090.txt.gz
Theta_e
347 337 340 342 344 344 344 344 344 343 341 339 337 336 336 337 337 337 338 341 342 340 342 344 341 341 340 342 341 340 339 339 339 338 338 337 337 337 337 340 339 338 337
344 333 336 338 341 343 343 344 344 343 342 339 337 336 336 337 338 339 340 341 341 343 345 344 341 341 340 339 338 336 336 338 338 339 338 337 337 338 339 339 338 337 337
343 330 332 333 335 339 342 341 343 343 343 341 338 336 336 336 338 339 341 341 341 343 344 344 342 341 337 336 335 336 338 338 338 338 338 339 339 339 338 337 337 336 336
344 333 332 332 332 334 339 341 340 341 342 342 340 337 336 336 338 338 340 341 341 344 344 344 343 342 339 337 337 338 338 337 337 338 340 338 339 337 336 336 336 337 336
344 342 335 331 332 333 336 338 340 339 340 341 341 340 337 338 338 338 339 340 342 344 343 344 343 341 339 338 337 337 337 336 337 338 338 337 338 337 337 337 336 336 336
343 345 335 331 332 334 336 337 338 339 340 342 342 342 340 339 338 338 338 338 339 340 340 342 342 340 338 337 336 337 336 336 338 336 336 336 337 337 335 335 335 335 335
342 344 341 333 332 334 336 337 337 338 341 346 345 344 342 341 338 338 338 338 338 338 336 336 336 336 338 337 336 336 335 337 337 336 337 336 336 337 335 335 334 334 334
343 345 342 337 333 336 336 336 337 338 342 347 351 345 342 342 339 338 338 337 336 336 334 334 334 335 337 336 336 336 336 336 335 335 335 335 335 337 335 334 334 333 332
343 346 346 337 336 337 337 336 337 339 342 346 347 344 343 342 340 338 337 336 335 335 333 330 332 332 333 335 336 335 333 335 334 334 334 335 335 333 334 332 332 331 329
345 345 347 343 339 337 337 337 337 338 340 340 345 344 343 341 340 338 337 336 336 334 332 328 331 330 332 333 332 332 333 333 335 334 334 333 333 333 332 330 330 329 327
346 347 348 347 345 343 343 338 337 337 338 339 340 340 341 339 338 337 336 335 334 332 332 331 330 327 330 331 330 331 332 332 333 332 333 332 331 331 331 329 328 327 327
347 347 348 345 346 345 343 343 338 337 337 338 338 337 337 338 337 337 336 334 333 332 331 331 328 327 324 331 330 330 329 332 332 331 331 329 329 330 329 327 327 326 326
346 347 347 345 344 343 342 342 341 342 339 339 339 339 336 337 338 337 335 333 332 332 330 329 327 327 327 331 331 329 330 331 331 331 330 328 328 328 326 325 325 325 323
343 344 347 347 343 343 343 342 343 342 340 342 340 339 339 336 336 337 336 333 332 329 329 327 328 325 325 331 329 330 331 330 329 329 327 326 326 326 325 324 324 323 321
336 342 345 347 343 344 343 342 341 341 342 342 340 339 337 336 336 335 336 334 332 331 329 327 327 326 326 331 331 329 330 330 329 328 326 325 325 325 324 323 323 322 321
325 338 344 345 345 343 344 341 340 340 340 340 340 338 337 336 336 335 335 334 332 331 329 327 327 326 326 329 330 329 330 328 328 326 324 324 324 323 323 323 322 321 320
322 328 344 343 344 341 343 341 339 339 338 338 338 337 336 336 335 334 333 332 332 331 329 327 328 327 325 328 329 329 328 327 326 325 323 323 323 323 322 321 320 321 321
321 324 345 344 343 342 342 341 337 336 336 337 335 335 335 334 334 333 333 332 332 330 330 328 325 325 328 329 329 328 327 325 323 323 323 322 322 321 319 319 321 320 320
320 323 344 343 343 343 341 342 339 336 335 334 334 334 334 334 334 332 332 331 331 330 330 328 326 326 326 328 327 327 325 324 322 322 323 322 321 321 320 321 321 320 318
319 322 343 343 343 342 341 341 339 336 332 333 333 333 333 333 333 332 331 331 330 330 329 329 327 326 326 327 327 324 323 322 321 321 322 322 321 321 321 320 321 319 318
319 321 344 343 342 341 341 339 337 334 332 332 331 331 330 332 332 331 331 331 329 329 329 328 328 327 326 327 326 324 323 321 320 320 322 321 321 321 321 320 318 318 317
321 324 343 343 341 341 341 337 335 334 332 331 328 329 329 332 331 330 330 329 328 328 329 328 327 325 326 325 325 323 323 323 322 322 322 320 322 320 320 322 320 319 318
325 331 341 343 340 340 340 336 334 332 332 331 330 329 328 330 331 330 329 329 328 328 328 328 327 325 325 325 324 322 323 323 323 321 321 321 322 322 320 322 322 320 319
327 331 338 342 339 340 337 336 334 332 331 330 330 329 329 330 329 329 328 328 327 328 328 328 327 325 324 325 324 323 322 322 322 324 322 322 321 321 321 321 321 320 320
327 332 335 340 339 338 336 336 334 332 330 329 330 330 330 330 329 329 328 328 327 327 327 327 327 326 324 324 324 324 321 323 321 323 322 323 322 323 322 321 321 319 319
326 333 335 339 338 338 335 336 333 332 330 329 329 328 328 327 325 324 326 327 328 326 326 326 326 326 324 324 324 323 322 322 323 323 321 323 322 322 322 320 319 321 320

GFSSE_925_thetae_093.txt.gz
Theta_e
342 341 341 342 343 343 343 343 342 342 340 337 335 334 333 334 335 338 342 341 341 341 340 340 340 341 340 341 341 340 339 339 339 338 339 340 338 337 337 337 337 337 337
339 342 342 341 340 342 343 343 343 342 341 338 336 335 334 334 335 337 340 342 342 341 341 340 341 341 340 340 339 339 338 339 338 337 337 337 337 339 339 336 336 336 337
337 341 341 338 338 341 343 343 343 342 341 339 337 335 335 335 336 337 340 341 341 341 343 341 341 339 339 339 338 337 337 337 337 337 336 337 339 340 337 335 336 336 336
332 337 337 334 334 338 341 342 342 342 342 341 338 337 335 336 337 337 339 340 341 343 344 343 343 340 337 336 335 336 337 337 337 337 337 338 339 338 336 336 336 336 336
331 332 332 331 332 335 338 340 341 341 341 341 340 337 336 336 337 337 339 340 341 342 341 340 341 339 336 336 336 337 337 336 339 338 337 338 338 337 337 337 337 336 337
333 332 330 330 331 333 337 338 339 339 339 340 341 340 338 337 338 337 338 340 339 339 338 338 340 339 337 336 336 336 335 337 337 337 337 337 337 338 337 336 336 336 335
338 337 330 330 332 334 336 337 338 339 339 340 341 341 341 339 338 337 338 337 338 338 336 335 336 337 336 335 336 336 336 337 336 336 336 336 337 337 336 335 335 335 334
343 345 334 332 334 335 335 336 337 338 340 346 346 344 342 341 339 338 338 337 337 337 336 335 335 334 334 333 333 334 336 336 335 335 335 336 336 337 338 335 335 334 333
342 343 340 333 334 334 335 335 336 338 338 345 344 344 344 341 339 338 338 337 336 336 334 333 333 332 329 333 332 334 334 335 334 335 335 334 334 336 336 334 334 333 331
342 343 341 334 333 334 336 336 335 337 335 344 343 344 343 342 341 338 338 337 336 335 333 331 331 330 327 331 332 332 332 334 333 334 334 334 334 335 333 333 333 330 328
344 343 345 335 334 334 336 336 336 336 336 337 342 343 343 341 341 339 337 336 335 334 333 328 329 329 325 331 332 331 332 333 334 334 333 333 333 332 332 332 333 330 327
346 347 346 344 338 336 337 336 336 336 336 337 338 339 341 340 340 338 337 336 335 334 333 329 330 330 329 332 331 329 332 332 333 333 332 332 331 331 330 330 329 328 327
345 347 347 346 346 342 343 341 336 336 336 336 336 336 336 339 337 338 337 335 334 332 331 331 329 328 329 330 331 329 331 331 331 330 331 331 331 330 329 328 327 327 326
346 347 347 346 346 345 341 340 337 337 337 335 335 336 335 338 337 337 336 334 333 332 331 329 328 327 326 328 331 329 330 331 331 331 330 328 328 329 328 327 326 325 325
342 346 346 345 343 343 343 342 339 340 339 338 338 339 338 337 336 336 335 334 332 332 331 329 328 327 326 327 329 329 330 330 330 330 328 327 327 327 326 325 325 324 323
323 345 346 345 346 340 341 342 342 342 340 341 341 340 339 337 336 336 335 333 332 331 329 328 328 327 326 327 326 328 330 330 329 329 327 326 325 325 324 324 323 322 321
319 329 346 346 345 342 341 343 342 342 342 341 341 339 338 337 336 335 334 332 333 331 331 329 328 327 326 326 327 327 328 329 329 327 326 326 325 323 323 323 322 321 321
319 319 344 346 345 343 341 343 340 340 339 338 339 339 337 337 336 335 334 332 332 332 331 329 327 328 326 326 326 327 328 328 329 327 324 324 324 322 322 320 320 320 320
319 319 339 345 345 343 343 342 341 338 337 336 336 336 336 335 335 335 333 332 332 332 330 329 327 327 327 325 326 327 327 326 327 324 323 323 323 322 321 320 320 320 319
318 318 331 344 344 341 342 341 340 337 335 336 335 334 334 333 334 333 332 332 332 331 330 330 328 327 325 327 327 328 327 324 325 323 322 322 321 320 319 319 320 320 319
318 317 331 342 342 341 340 340 337 335 335 334 334 332 332 332 333 333 332 331 331 330 330 329 327 326 326 326 326 326 324 321 323 323 322 321 320 320 319 319 320 320 318
318 318 335 342 342 341 340 339 337 336 334 332 333 331 331 332 333 332 331 331 330 329 329 329 328 327 326 326 325 323 322 321 321 322 322 321 321 321 320 320 320 319 318
319 321 340 342 341 340 340 337 336 334 332 331 330 329 329 329 331 331 331 331 330 329 329 328 328 327 326 326 325 322 322 322 321 321 322 321 321 321 321 320 320 319 318
320 329 340 341 340 339 340 337 336 332 331 330 329 328 328 328 329 330 330 329 329 329 328 328 328 326 325 325 325 323 322 322 321 321 321 322 322 322 320 322 322 321 319
322 340 341 340 339 339 338 336 335 332 331 331 329 329 327 328 329 329 330 329 329 328 327 328 327 325 324 324 324 324 323 321 321 320 320 321 322 321 322 320 321 322 320
325 338 340 339 339 338 336 336 333 332 330 330 330 329 329 329 329 329 329 328 327 326 326 328 327 326 324 324 324 323 322 321 321 320 319 320 320 322 320 322 321 322 320

GFSSE_925_thetae_096.txt.gz
Theta_e
344 343 343 342 343 342 342 341 340 337 335 333 334 334 335 338 342 343 342 341 340 340 340 339 338 341 342 341 342 340 340 340 340 339 341 340 342 340 338 338 337 337 337
340 342 342 343 343 342 342 341 341 339 337 334 334 333 334 336 338 341 341 341 340 340 339 339 339 340 341 340 340 339 339 338 338 338 338 340 341 340 337 337 337 337 337
338 341 342 343 342 342 342 342 341 341 339 336 335 334 335 335 336 338 340 341 343 343 341 340 340 339 340 339 339 338 338 337 336 337 339 340 340 340 336 336 337 337 337
336 340 341 342 341 342 342 342 342 341 340 338 336 335 336 336 336 337 339 341 343 343 342 340 339 337 338 338 338 337 337 337 336 337 338 338 340 340 335 335 336 337 337
336 337 338 339 339 341 341 342 342 342 341 339 337 336 336 336 337 337 339 339 342 342 341 339 338 337 336 335 335 337 338 337 337 336 337 337 338 339 337 337 337 336 335
333 334 334 336 340 339 340 340 341 341 341 341 339 337 336 336 337 338 339 339 340 339 338 338 338 336 335 335 337 337 338 338 337 336 336 337 337 337 337 336 336 335 335
330 331 331 333 336 337 338 338 339 339 340 340 340 339 337 337 337 338 339 339 338 338 336 337 338 336 335 335 336 336 337 338 337 337 336 337 337 338 337 336 336 335 334
328 330 330 330 331 334 336 336 338 338 339 340 340 340 340 338 338 338 338 338 338 337 336 335 336 336 334 335 336 336 337 336 336 336 336 336 337 337 337 335 335 334 334
330 330 330 331 332 335 335 336 337 337 338 339 341 341 341 340 339 338 338 337 337 336 334 335 335 334 333 333 334 334 335 336 335 334 335 335 335 336 336 335 334 334 333
342 339 331 330 333 334 335 335 336 337 337 342 343 343 342 341 339 338 338 337 336 336 334 333 332 331 330 331 333 333 334 335 334 334 334 334 335 336 336 334 334 333 330
343 341 338 330 332 334 335 335 336 337 336 342 343 343 342 341 340 339 339 337 336 335 334 333 332 330 328 333 331 331 332 334 333 334 333 334 334 335 335 334 332 334 328
344 342 339 331 330 334 335 335 337 338 337 341 342 343 342 341 340 339 338 337 336 334 333 331 330 329 328 333 332 332 331 333 332 332 333 334 334 334 333 331 331 332 328
343 344 343 339 330 331 335 335 337 338 337 338 338 340 341 340 340 340 338 337 336 333 333 330 329 329 329 333 332 332 332 332 333 333 333 332 332 332 331 330 331 329 328
345 343 344 343 339 331 331 335 336 337 336 337 338 338 339 340 339 339 338 336 335 334 333 330 329 330 330 330 330 329 331 331 332 332 331 331 331 332 331 330 329 328 327
344 346 345 345 343 339 336 336 337 336 336 335 336 336 335 338 338 337 337 336 335 334 332 331 331 329 328 326 328 328 330 331 330 330 330 330 331 332 330 329 328 328 326
343 346 345 345 345 343 341 339 337 336 335 335 335 335 335 334 336 336 336 336 335 333 331 331 330 327 327 326 326 329 328 329 330 330 330 330 329 328 327 328 328 327 325
322 343 346 345 346 344 342 339 340 337 338 338 337 337 337 336 336 335 335 335 334 333 332 331 329 328 327 327 326 326 328 328 329 330 329 328 327 326 325 325 324 323 322
317 323 342 344 344 344 343 341 341 339 341 339 340 339 339 338 337 336 336 335 333 332 331 331 329 329 327 326 326 327 326 328 328 329 328 327 326 325 324 323 322 321 320
315 317 332 342 344 343 342 339 341 341 342 341 340 340 339 338 337 336 335 335 334 332 331 330 329 329 328 327 327 326 326 328 327 328 327 326 325 323 322 322 321 320 319
314 316 325 335 342 343 341 340 341 341 341 340 339 339 339 337 336 336 335 334 332 331 330 330 330 328 328 326 326 326 326 327 326 326 326 325 324 322 322 321 320 319 319
315 314 330 338 342 342 339 338 338 338 338 337 336 334 336 336 334 334 334 333 332 332 330 330 329 327 327 327 327 327 326 326 325 325 325 323 323 322 321 320 319 319 318
314 315 324 337 341 341 340 339 337 336 336 335 334 335 333 334 332 333 332 332 332 331 330 329 328 326 326 326 326 323 323 320 322 323 323 323 323 322 320 319 319 320 319
314 316 324 336 340 340 340 339 337 334 334 335 335 333 332 331 330 331 331 332 331 331 331 330 328 327 326 326 326 323 323 323 320 321 321 321 321 321 319 318 318 320 320
322 316 322 336 339 340 339 337 335 334 333 332 332 332 330 329 330 331 332 331 330 330 329 329 328 327 326 326 325 324 322 321 322 322 320 320 320 320 320 319 319 320 320
321 324 329 338 340 339 338 337 335 334 332 331 331 331 329 328 328 328 330 331 330 330 329 328 328 326 326 326 325 323 322 321 320 320 322 320 320 320 320 320 320 319 319
316 324 337 339 340 338 336 335 336 332 330 329 329 329 328 327 326 327 328 329 329 328 328 328 327 326 325 325 325 323 322 321 320 320 319 321 321 321 321 321 320 321 321

GFSSE_925_thetae_099.txt.gz
Theta_e
342 342 342 343 342 339 338 336 334 333 333 335 336 339 340 342 342 341 343 339 339 338 341 338 339 342 342 341 340 341 341 340 340 340 339 340 340 340 338 338 338 338 338
341 342 342 343 342 340 339 337 335 333 333 334 334 338 341 343 342 345 342 340 340 340 341 337 340 341 341 341 340 339 339 339 339 338 338 340 342 340 338 337 337 338 337
339 342 342 343 342 341 340 339 337 335 334 334 333 336 339 342 343 342 341 341 341 343 340 339 340 340 340 340 339 338 338 338 338 337 339 340 339 341 338 337 337 337 337
340 342 342 343 342 342 341 340 339 337 335 334 334 335 336 338 339 340 340 340 340 340 339 339 339 339 339 339 338 338 337 337 337 338 339 339 341 340 338 337 337 337 336
341 341 342 342 342 341 341 341 340 339 337 335 335 335 335 337 337 338 339 342 342 342 340 340 337 337 338 338 338 337 337 336 336 338 338 338 338 339 339 337 337 337 336
340 341 341 340 340 341 341 341 341 340 339 337 336 335 336 337 337 338 339 342 343 341 339 338 336 336 336 335 336 337 337 336 337 338 338 337 338 340 337 336 336 335 335
340 339 338 337 338 339 341 341 341 341 340 339 337 336 336 336 337 338 339 338 340 339 338 338 337 336 335 336 337 337 337 336 337 337 337 336 336 337 337 335 335 334 334
334 336 336 337 337 338 339 340 340 341 341 340 339 337 336 336 337 338 339 339 339 338 337 336 337 335 335 336 337 337 337 337 336 336 336 336 335 338 338 335 335 335 334
334 333 332 332 333 337 338 338 339 339 340 340 339 339 338 337 337 337 338 339 337 337 336 336 336 335 334 335 336 336 336 337 336 335 335 335 336 337 339 335 335 334 334
334 333 332 331 332 334 336 337 336 338 339 339 339 339 339 338 338 338 338 338 337 337 335 335 335 334 334 335 335 336 335 335 335 335 334 334 335 336 337 335 335 334 333
336 333 332 333 334 333 334 336 336 337 339 340 339 340 340 340 339 338 338 337 337 336 335 334 334 333 334 335 334 334 334 334 335 334 333 333 334 336 335 334 334 333 331
339 334 333 333 333 334 335 335 336 338 340 338 339 339 342 341 340 338 338 337 336 336 335 334 334 333 334 333 334 334 333 334 333 333 333 333 334 335 335 334 333 333 331
342 339 336 332 332 333 334 335 336 338 339 338 341 341 342 341 340 339 339 338 336 335 335 333 333 332 328 333 333 333 332 333 333 333 332 332 333 334 334 332 331 330 331
343 341 340 336 332 331 331 333 335 337 340 339 338 340 342 342 341 340 339 338 337 335 334 333 332 331 328 333 332 332 332 331 332 332 333 332 333 333 332 331 330 330 328
342 343 341 338 333 330 331 332 334 337 338 340 337 339 341 341 340 339 339 338 337 335 333 332 330 329 328 332 330 331 331 329 330 332 333 333 331 332 332 331 330 330 329
340 343 343 341 338 333 332 331 331 334 335 335 335 337 340 339 339 338 339 337 336 336 334 333 330 330 330 331 331 328 327 327 327 330 331 331 330 330 332 331 331 330 328
319 335 343 343 342 340 335 332 330 332 332 333 334 336 337 337 338 337 337 337 336 335 334 333 330 330 330 329 326 328 328 326 327 328 329 330 330 329 330 329 328 328 328
312 317 338 343 343 343 341 338 335 334 334 333 334 334 336 335 336 336 336 335 335 334 333 332 331 329 327 327 326 326 328 327 327 327 328 329 330 328 327 326 326 325 324
312 312 324 341 343 344 343 342 340 336 335 335 334 334 335 335 335 335 335 334 334 334 332 332 330 329 328 327 328 326 327 327 327 326 328 329 328 327 325 325 324 323 322
312 311 315 333 342 343 343 342 340 338 338 337 337 337 337 337 337 336 336 335 336 333 331 330 330 329 328 328 327 327 327 326 326 327 327 328 327 326 324 323 322 321 320
311 312 312 332 339 341 340 339 338 338 339 339 340 339 339 339 338 336 336 335 334 333 329 329 329 329 328 328 327 326 326 326 326 326 327 327 327 325 323 322 322 320 319
311 312 312 322 338 340 339 339 338 338 337 337 338 339 339 339 338 336 336 335 333 331 328 327 328 327 327 327 326 325 323 321 324 325 326 326 326 324 323 322 321 320 319
315 311 312 320 334 339 339 338 337 336 335 335 336 337 338 337 337 335 332 333 332 333 328 326 329 328 327 327 326 324 323 324 321 322 324 324 324 324 323 322 320 319 318
315 317 318 320 334 338 339 337 336 335 334 334 334 334 334 334 334 332 331 330 332 333 330 327 328 327 326 325 325 325 323 321 323 322 320 322 323 323 322 322 320 319 319
311 313 320 321 333 337 339 338 336 335 334 333 333 332 334 333 333 329 328 330 329 331 332 328 326 326 326 326 325 324 322 321 322 321 323 319 319 321 321 321 320 319 319
309 310 313 327 335 337 338 337 336 335 332 330 330 332 331 330 329 329 329 329 330 329 328 328 326 326 325 326 325 324 323 321 321 321 321 321 320 319 319 319 319 318 318

GFSSE_925_thetae_102.txt.gz
Theta_e
337 340 340 342 340 337 335 333 336 340 342 344 344 344 344 342 339 334 335 336 338 345 345 344 339 341 341 340 338 338 339 340 340 339 338 340 341 338 337 338 338 338 338
336 340 342 342 340 337 335 334 333 336 337 337 339 342 343 342 338 336 337 337 338 343 344 340 341 341 341 340 339 340 340 340 340 339 338 337 340 340 338 338 338 337 337
336 340 341 342 340 338 336 334 333 334 334 334 335 337 340 341 339 342 339 338 339 340 340 338 340 341 341 340 339 339 339 339 339 339 340 341 340 339 338 337 337 337 337
337 341 341 342 341 339 337 335 333 334 334 334 335 337 340 341 343 342 340 340 341 342 339 340 339 340 339 339 338 338 338 338 338 339 340 339 339 340 338 337 336 336 336
340 341 341 342 341 340 338 336 335 334 334 333 334 336 340 342 343 341 341 341 343 341 338 341 339 339 338 338 338 337 337 337 337 338 339 338 338 339 340 337 336 336 336
340 341 341 342 342 340 339 339 337 335 334 334 334 335 336 338 339 340 340 339 339 339 339 342 338 336 338 338 337 337 336 337 337 338 338 338 338 338 338 336 336 336 335
341 341 341 342 342 341 340 340 339 337 336 335 335 335 335 336 337 339 340 341 341 340 339 339 336 336 337 336 336 336 336 336 337 338 338 338 337 338 337 336 336 335 335
339 340 341 341 341 340 341 340 340 339 338 336 336 336 336 336 337 338 340 341 341 338 339 338 336 336 334 335 335 336 336 336 336 337 337 336 336 336 337 335 334 334 334
339 341 342 341 340 339 339 340 340 340 339 338 337 336 336 336 337 338 339 339 339 338 338 337 336 335 334 335 336 335 336 335 335 335 336 336 334 337 337 336 334 334 334
341 342 342 341 340 340 339 339 339 340 340 340 339 337 337 337 337 337 338 338 338 337 336 336 336 334 335 336 336 336 336 336 335 336 335 335 333 336 338 335 334 334 333
340 340 340 341 341 340 339 339 339 338 338 339 339 339 338 337 338 337 337 337 337 337 336 335 336 335 334 336 336 336 336 336 336 335 334 334 332 335 336 335 334 334 333
337 339 339 338 337 337 338 338 338 338 338 338 339 340 340 339 338 338 338 337 337 336 336 335 334 335 335 335 336 336 335 335 335 334 334 333 332 334 336 335 334 333 333
337 335 334 332 332 333 336 336 337 339 337 337 338 339 340 340 340 339 338 338 337 336 336 334 334 334 334 334 335 335 334 333 334 334 332 333 332 333 334 334 333 332 332
341 338 334 335 332 334 335 336 338 342 337 338 337 337 338 341 341 340 338 338 337 336 335 335 335 334 334 334 333 331 333 331 331 333 333 333 333 333 334 334 332 331 330
340 341 340 336 335 335 335 335 336 340 341 339 336 338 338 340 341 340 339 338 338 336 335 334 333 333 332 331 331 330 332 331 330 331 332 332 333 332 334 333 331 330 330
316 332 341 341 339 336 335 334 335 336 336 339 342 337 338 340 341 340 340 338 338 337 335 334 333 332 331 329 329 331 329 330 328 328 328 331 332 331 333 333 332 331 329
312 314 327 340 341 339 335 333 332 332 334 336 337 339 336 338 340 339 339 338 338 337 336 333 332 331 329 330 330 330 329 328 327 326 326 326 329 330 331 330 330 331 329
310 311 314 323 339 341 337 333 332 331 331 334 335 338 335 336 339 339 338 338 337 337 335 333 332 331 330 331 329 329 328 326 326 325 325 327 329 330 329 330 329 328 328
310 311 311 316 335 339 340 337 334 333 332 332 333 331 334 336 337 338 338 336 335 335 334 332 330 330 329 329 328 326 326 327 327 325 326 326 327 329 328 329 328 327 327
309 309 310 310 324 337 340 338 336 335 334 333 332 332 333 335 336 335 336 335 334 332 331 331 330 330 329 327 327 327 326 327 327 327 327 326 326 328 328 326 325 326 324
311 307 309 309 315 337 339 338 337 337 336 335 334 332 332 334 335 335 335 335 334 331 331 331 329 329 328 328 327 327 327 326 326 327 327 326 326 327 328 325 323 323 322
315 316 310 308 314 334 338 339 338 338 337 336 335 335 332 334 334 335 335 335 334 333 332 331 329 328 328 328 327 325 324 323 326 326 325 326 326 326 327 324 323 322 321
312 313 313 317 318 331 337 339 337 338 336 336 335 336 336 336 336 336 337 334 334 332 331 329 329 328 328 327 327 325 323 325 321 322 325 326 326 326 326 324 322 322 320
310 310 313 315 319 329 336 338 336 336 335 335 335 335 336 337 337 338 338 336 335 331 331 330 328 328 327 327 326 326 323 322 322 322 322 324 324 325 325 324 322 322 320
306 308 309 312 315 322 336 336 336 335 334 334 334 334 334 334 336 338 337 336 332 329 330 329 327 327 327 327 327 325 322 321 321 319 322 319 320 322 324 323 322 321 320
303 304 306 308 311 322 336 337 335 334 334 333 333 332 332 333 336 336 335 333 329 329 329 328 327 326 327 326 325 325 325 322 320 320 320 321 321 320 322 322 322 321 320

GFSSE_925_thetae_105.txt.gz
Theta_e
340 340 340 340 341 337 338 343 343 343 343 343 343 342 339 338 336 335 336 339 337 345 345 345 340 340 341 341 338 337 336 339 339 339 339 342 341 338 338 338 339 342 338
339 339 339 340 340 336 337 341 344 344 344 344 344 343 342 340 336 334 336 338 342 344 344 339 339 339 340 339 338 337 338 341 339 339 338 341 339 338 339 339 340 340 337
338 339 339 341 339 336 335 338 341 343 344 344 344 344 343 340 336 335 336 338 343 344 342 338 339 341 339 338 338 339 340 340 340 338 339 338 340 339 338 338 337 336 336
338 340 339 341 339 336 335 336 338 339 340 342 343 343 343 340 336 337 337 338 341 342 339 337 339 340 340 339 339 339 339 340 339 338 341 341 341 338 337 336 336 336 337
341 341 341 341 339 337 335 335 335 335 336 337 339 341 341 339 338 340 339 339 339 339 338 337 338 340 340 339 338 338 338 339 338 340 341 341 340 339 337 336 336 336 337
340 341 341 341 340 338 336 335 334 334 334 336 338 340 341 340 342 341 340 340 341 341 337 337 338 339 338 338 337 337 337 338 338 341 340 339 340 339 337 336 337 337 336
341 341 341 341 340 339 338 336 335 334 334 334 338 340 341 343 343 341 341 341 342 339 338 339 337 337 338 338 337 336 336 336 340 340 340 340 337 338 337 336 336 335 335
342 341 341 341 341 340 339 337 336 335 334 334 335 336 339 340 340 340 339 339 339 339 339 340 337 336 337 337 337 337 336 336 338 340 340 340 338 337 337 336 335 335 335
343 341 341 342 342 341 340 339 338 337 335 335 335 335 335 336 337 338 338 340 341 339 338 338 336 335 336 336 335 335 336 336 340 340 339 339 337 337 337 335 334 334 335
342 342 342 342 342 342 341 340 340 339 338 336 335 335 336 336 337 338 338 340 341 338 338 338 336 336 335 334 335 336 336 336 339 339 338 338 336 335 337 335 334 334 334
341 342 342 342 344 342 342 341 340 340 339 338 337 336 336 339 338 339 340 340 339 338 338 337 336 336 335 335 336 336 336 338 338 338 336 334 333 334 336 336 334 334 334
340 340 344 345 343 345 341 341 341 341 340 340 340 339 339 338 340 341 340 338 338 338 337 336 336 336 335 338 337 337 337 336 337 335 335 334 333 332 334 336 334 334 333
338 338 339 342 344 343 342 341 340 340 340 340 340 340 341 339 338 339 341 339 339 338 338 335 335 337 338 337 337 337 336 336 336 336 334 334 333 331 333 335 334 333 332
340 335 335 337 339 340 342 338 338 341 343 341 339 339 341 339 339 340 341 339 339 339 338 336 334 336 337 336 336 335 333 334 334 334 334 333 333 331 332 333 333 333 332
334 341 335 332 333 337 341 336 337 336 337 340 339 338 339 340 340 339 339 338 338 337 337 336 335 335 335 335 335 335 334 333 331 329 331 331 331 332 331 333 326 332 331
312 326 337 334 331 334 333 335 336 336 337 336 338 339 338 339 341 341 340 338 338 338 337 336 335 335 335 333 333 333 334 332 330 330 329 327 328 332 331 334 330 332 330
311 311 325 320 325 336 333 332 334 336 336 337 337 337 335 335 338 340 341 338 338 338 337 336 334 333 333 332 331 330 332 331 328 327 326 325 325 327 331 334 333 331 332
308 309 309 323 330 338 338 336 333 334 336 335 335 336 338 338 338 339 340 340 337 337 337 335 334 332 331 331 331 330 331 329 328 326 326 327 327 327 328 331 331 330 330
308 307 307 308 325 331 336 338 336 334 334 333 333 335 338 339 338 339 341 340 338 337 336 336 334 332 331 330 331 330 331 329 327 326 325 325 326 325 327 331 325 328 330
317 317 311 307 308 323 333 336 336 335 334 332 331 332 334 339 340 340 339 336 335 334 334 334 333 333 331 330 329 328 329 328 326 327 325 324 324 326 326 329 328 329 327
315 316 317 316 308 313 332 336 335 335 334 333 333 334 336 336 338 337 337 336 336 334 331 332 332 331 329 329 329 328 327 327 327 326 326 326 326 326 325 327 328 329 327
312 313 313 316 317 315 324 333 334 334 334 335 334 334 333 333 333 335 335 334 334 333 330 330 330 329 329 328 327 326 326 326 327 326 327 327 327 326 326 325 327 327 327
309 309 310 312 314 317 320 331 335 335 335 335 334 334 334 333 332 333 334 333 333 332 330 332 330 330 328 328 328 326 325 328 324 326 326 326 326 326 325 326 326 325 325
306 306 307 308 311 314 319 328 334 334 334 334 335 335 335 335 333 333 333 333 332 333 332 331 331 330 328 328 327 327 325 324 327 327 322 325 325 325 325 325 325 324 324
303 303 304 305 308 312 315 321 334 335 334 335 337 336 335 334 333 332 333 333 333 333 332 331 329 329 329 328 327 326 324 322 321 324 326 322 324 325 324 324 325 323 323
302 301 301 302 304 308 312 317 329 334 334 335 335 336 334 332 332 333 333 333 333 334 332 330 329 329 328 327 327 327 326 323 322 323 325 324 323 321 322 322 324 323 322

GFSSE_925_thetae_108.txt.gz
Theta_e
343 350 344 342 341 339 339 341 342 343 344 342 335 333 334 334 335 336 337 338 341 343 346 346 343 341 335 335 335 335 333 339 339 340 340 340 339 338 337 337 340 341 339
342 351 344 342 341 338 339 342 343 344 345 342 339 334 336 335 336 336 337 340 342 345 346 344 342 340 340 340 338 338 336 339 339 339 340 342 340 337 337 339 341 341 339
345 350 344 342 340 337 339 342 344 344 343 343 342 337 337 337 337 337 339 338 344 345 343 338 339 340 340 340 337 337 338 341 339 339 341 342 342 339 338 337 340 337 338
346 348 347 340 340 336 337 341 343 344 343 344 343 341 339 338 337 337 338 339 345 344 341 337 339 340 339 338 337 338 340 340 339 339 340 339 340 339 338 339 338 337 336
346 346 348 340 339 336 335 338 342 343 344 344 344 343 342 339 337 337 338 341 344 344 340 337 339 340 339 338 339 339 339 340 339 338 341 340 341 340 339 336 335 336 337
345 346 348 341 339 336 334 335 338 341 342 343 344 344 343 340 337 337 338 339 341 340 339 338 339 340 340 339 338 338 339 339 338 340 340 341 341 339 336 336 338 337 338
346 348 348 341 340 337 335 334 335 336 337 337 339 341 341 340 337 339 339 339 339 340 339 339 338 339 339 338 338 337 338 338 340 339 339 340 341 338 337 337 337 336 336
346 349 349 343 340 338 336 335 334 335 336 336 337 339 340 340 340 341 340 340 340 341 339 339 339 338 338 338 337 337 337 337 340 338 338 340 341 337 338 337 336 335 336
348 349 349 348 343 339 337 336 335 335 335 336 337 338 340 341 343 342 341 340 340 340 338 338 339 337 338 338 337 337 336 337 339 338 338 339 339 337 338 336 335 334 335
347 348 349 350 348 347 343 338 337 336 335 335 335 337 339 341 341 340 340 339 339 339 338 339 339 337 336 337 337 336 336 337 339 337 339 338 339 336 338 336 335 335 335
345 347 348 346 345 347 347 345 339 338 336 336 336 336 337 341 342 342 341 341 339 340 338 338 338 337 336 336 336 336 336 337 337 337 337 337 337 336 338 336 335 335 335
345 344 344 345 346 343 345 347 345 345 343 342 342 342 341 342 343 343 342 342 340 339 338 337 337 337 336 338 338 337 337 336 336 337 338 337 335 334 335 335 335 334 334
343 344 343 343 344 345 343 345 346 345 345 344 344 344 343 343 344 343 343 343 342 341 340 338 339 339 338 338 338 337 337 338 337 337 338 337 334 332 333 334 334 333 334
343 342 343 343 343 342 342 343 343 343 344 344 345 345 343 343 343 342 341 342 342 342 340 341 339 339 338 339 338 339 338 336 336 336 336 333 333 332 331 333 334 333 333
320 332 341 341 341 340 339 341 341 341 340 342 342 342 344 344 343 342 340 340 341 341 341 341 340 340 339 338 338 338 337 337 336 337 335 332 332 331 331 334 334 334 332
316 316 326 339 340 340 339 339 339 339 339 340 340 340 343 342 343 342 341 342 340 340 341 340 340 339 338 338 337 337 337 337 335 335 335 331 330 329 329 333 333 332 331
314 314 315 325 340 340 339 338 338 337 338 338 339 340 341 341 341 340 340 340 341 339 341 340 340 339 338 337 337 336 336 335 334 334 332 328 328 326 325 326 330 325 328
314 314 314 314 318 330 338 339 339 338 338 337 337 338 340 340 340 340 340 339 339 340 341 340 339 338 338 337 336 335 335 335 334 334 330 327 326 327 327 325 326 327 331
320 321 321 317 315 321 331 336 338 340 340 338 338 337 337 338 337 337 338 338 338 337 340 339 338 338 337 336 335 335 333 334 333 332 328 326 325 327 328 327 326 328 332
320 321 322 322 321 315 322 332 334 337 338 340 339 338 337 336 336 336 337 337 336 336 337 337 336 336 336 335 334 333 333 333 332 332 330 326 325 327 326 326 325 327 330
319 319 319 321 322 322 315 324 331 336 336 335 338 338 337 337 336 336 337 337 335 335 335 335 335 335 333 333 331 330 330 331 331 331 330 327 328 327 325 325 325 327 325
316 316 316 317 318 320 321 318 327 331 333 333 335 337 337 336 335 336 336 336 335 335 334 335 334 332 332 332 330 329 330 329 330 330 329 328 328 328 327 326 324 325 329
313 313 313 314 314 316 319 321 322 329 332 333 334 335 335 336 334 334 335 336 335 336 334 333 333 332 331 330 331 329 328 330 327 328 329 329 330 329 327 329 326 325 326
310 310 310 311 311 312 315 319 323 326 332 332 333 333 334 335 336 335 335 336 336 335 334 333 332 334 332 330 330 330 327 327 330 331 328 329 330 329 328 329 328 327 325
308 308 308 308 308 310 310 313 317 323 329 332 332 333 334 334 334 336 335 335 335 334 333 333 332 334 333 332 330 328 329 325 324 328 331 328 327 328 328 327 326 326 326
305 305 305 304 305 306 307 309 312 317 324 332 332 334 334 335 334 335 334 335 334 333 333 332 334 334 332 332 332 331 329 327 326 325 328 328 329 327 325 325 325 325 324

GFSSE_925_thetae_111.txt.gz
Theta_e
342 350 342 341 342 341 341 340 340 341 342 340 334 333 334 335 334 335 336 341 344 339 339 343 341 340 335 332 333 335 334 339 340 339 339 339 338 338 337 337 341 342 339
343 350 342 342 341 340 339 338 339 340 342 342 337 334 335 335 336 336 338 342 345 346 345 340 336 335 335 335 335 335 334 337 339 340 340 341 339 337 337 340 343 340 339
343 353 344 342 341 340 338 338 340 342 343 343 340 334 335 336 336 337 337 339 342 344 345 344 344 343 339 340 339 338 336 339 339 339 339 342 343 337 337 341 342 337 338
345 352 348 342 341 339 338 339 341 343 344 344 340 335 335 336 337 336 338 340 344 346 345 341 340 340 340 341 338 337 337 340 339 338 342 341 341 339 339 340 338 337 338
347 349 350 343 341 338 338 340 342 343 344 342 342 336 337 338 338 337 339 339 345 345 342 339 341 340 340 339 338 338 339 340 340 338 341 338 340 340 338 338 336 336 336
347 347 349 343 340 337 337 341 343 343 343 344 343 341 339 339 338 337 339 339 343 345 342 340 343 341 339 339 339 339 339 340 340 341 342 341 341 340 338 337 338 337 339
346 347 349 342 340 337 337 340 342 343 344 344 344 343 342 341 339 337 338 340 342 344 342 340 343 341 340 339 339 338 339 339 340 340 339 341 342 339 336 336 338 336 337
346 348 353 345 340 337 336 338 339 340 341 343 344 344 343 342 339 337 338 339 340 340 340 339 340 340 340 339 338 338 338 338 338 340 338 338 341 339 335 337 337 336 336
348 349 351 349 343 338 336 336 335 336 337 337 339 341 342 342 340 338 339 339 339 340 340 338 338 339 338 338 338 337 337 337 339 338 337 339 338 339 337 336 336 335 335
351 351 351 351 348 346 340 336 335 335 335 336 337 339 341 341 339 341 341 340 340 340 340 338 340 339 338 338 338 337 337 336 338 340 337 339 338 337 338 336 336 334 335
350 350 351 351 349 349 347 343 337 336 335 335 336 338 341 345 346 346 343 344 340 339 338 338 340 339 337 337 337 337 337 338 337 335 337 337 337 337 336 337 335 334 335
349 349 350 349 347 348 349 348 344 343 341 340 341 342 343 343 344 344 343 342 342 339 339 339 339 339 337 339 338 337 338 337 336 335 336 336 335 336 335 335 335 334 335
341 348 347 347 345 346 347 348 347 346 344 344 344 344 343 342 343 343 343 343 342 341 342 340 340 340 339 339 339 339 337 337 336 337 338 336 336 334 334 333 333 333 333
335 345 348 347 348 347 346 347 345 344 346 344 344 344 344 343 342 343 339 343 342 341 341 341 340 340 339 339 339 339 338 337 339 338 338 333 333 334 332 332 333 333 333
320 335 344 346 346 347 347 344 344 343 344 344 345 344 343 341 341 340 340 339 343 341 341 341 340 340 339 338 339 339 339 338 338 338 337 333 332 332 333 331 333 332 332
318 318 322 339 344 344 344 344 342 342 341 343 343 342 343 342 341 341 340 339 338 341 341 341 340 340 339 339 338 339 338 338 337 337 336 336 330 331 332 332 331 329 332
316 316 317 320 333 341 342 342 341 339 340 340 341 341 342 342 343 343 342 339 338 337 341 340 339 340 340 339 338 339 337 338 337 336 335 335 332 330 330 328 328 325 323
319 320 320 318 318 331 339 339 341 339 338 338 338 340 340 342 341 343 342 341 341 339 339 340 340 339 339 339 338 337 337 337 336 336 335 334 333 329 326 327 326 324 324
321 323 323 324 324 319 321 329 337 340 341 340 339 339 340 341 341 341 343 341 341 340 339 340 339 339 339 338 338 336 336 336 336 334 333 334 332 327 326 327 327 325 327
321 322 322 323 324 326 324 320 330 334 337 339 340 341 340 340 341 341 341 341 340 340 340 340 340 339 339 337 337 335 335 336 334 333 333 332 331 329 325 326 327 326 326
321 321 321 321 322 323 324 323 320 330 333 336 338 339 342 341 340 340 340 339 339 339 339 339 339 337 337 337 338 336 335 334 333 332 332 332 331 329 326 326 325 325 326
318 318 317 318 319 320 321 323 324 322 327 330 334 336 339 341 340 340 339 338 339 337 338 337 337 337 337 337 335 334 335 333 332 333 332 331 331 330 328 326 325 324 325
315 315 314 315 315 316 317 319 322 324 323 328 333 333 335 339 341 340 338 339 338 337 337 337 336 335 335 336 334 332 332 333 330 331 332 331 331 330 330 329 326 325 324
313 313 312 313 313 313 314 316 318 321 325 323 330 331 333 336 339 339 339 337 339 337 337 336 335 336 335 332 334 333 332 331 332 332 331 331 331 330 330 330 328 328 326
311 310 310 310 310 310 310 312 314 316 319 324 326 332 333 334 337 337 337 337 338 337 337 336 335 335 334 333 333 332 333 331 330 331 332 331 330 331 329 329 330 328 328
309 308 308 307 306 306 306 307 308 310 312 317 322 328 335 334 336 336 336 335 336 338 336 337 336 334 334 334 333 331 331 331 329 330 331 329 330 329 329 329 330 329 328

GFSSE_925_thetae_114.txt.gz
Theta_e
350 341 345 343 342 341 342 342 342 341 341 340 335 332 332 334 333 332 331 334 338 340 341 342 344 341 338 339 338 337 333 336 339 339 338 337 337 337 337 340 343 340 338
351 343 342 342 341 341 341 341 340 341 341 340 336 333 333 334 333 333 334 337 338 339 341 341 338 336 332 332 330 332 333 333 337 339 338 337 337 336 337 342 343 338 338
352 345 341 341 341 341 341 340 339 339 340 341 338 333 334 334 334 334 336 340 343 344 343 338 335 336 335 334 335 336 336 335 337 338 339 341 338 337 339 341 342 337 338
353 349 342 341 341 340 339 338 338 339 341 342 341 334 334 335 335 334 336 339 342 343 344 344 344 345 340 341 340 338 336 338 338 338 341 343 340 335 339 340 338 337 338
348 353 349 342 341 340 338 338 339 341 343 344 342 336 334 336 335 335 335 337 342 345 345 343 341 343 343 340 339 337 337 339 339 338 341 341 341 336 339 339 336 336 337
347 352 349 347 341 340 338 339 340 342 343 344 342 337 335 337 337 336 336 338 342 345 344 339 341 341 341 339 338 337 338 339 339 339 342 338 341 337 335 337 336 336 338
347 350 350 349 342 339 339 340 341 342 343 343 342 340 337 338 338 337 338 338 340 344 344 341 341 342 340 339 339 339 338 338 340 341 339 337 340 339 335 337 338 337 338
349 350 349 347 342 339 339 340 342 343 343 343 344 343 341 340 340 338 337 338 340 342 343 341 340 341 340 339 339 338 338 337 339 340 336 332 338 338 335 336 337 336 337
348 354 352 347 341 339 339 339 340 341 343 344 344 344 343 343 341 339 337 338 339 340 341 340 339 339 339 339 338 338 337 336 337 339 340 337 338 336 336 335 337 336 336
351 349 354 350 343 339 338 338 338 338 339 340 341 343 343 343 342 340 338 339 339 340 339 340 339 338 339 338 338 338 337 336 335 334 340 338 338 337 336 334 337 336 335
351 351 352 352 348 344 340 337 337 337 337 337 338 339 341 342 341 340 339 340 340 340 340 340 339 339 340 337 337 337 337 336 335 334 337 337 336 336 336 335 335 335 334
351 351 351 352 349 348 347 344 337 336 337 337 338 339 341 343 346 344 343 343 343 341 339 339 339 340 340 338 337 336 336 336 337 337 336 335 335 329 335 335 334 334 333
327 350 350 349 348 348 349 348 342 342 339 339 340 342 339 344 346 344 345 343 341 341 339 339 340 340 339 338 340 340 336 335 337 338 336 329 331 333 334 334 334 334 333
322 346 349 348 346 345 347 350 348 346 344 344 342 342 344 342 342 345 340 344 342 341 340 342 341 339 338 340 338 339 338 338 338 337 337 334 334 334 334 333 333 333 332
320 331 345 347 347 345 346 347 348 347 347 346 345 344 344 344 345 343 342 343 344 342 342 340 342 341 338 338 339 339 338 338 337 337 337 334 332 331 333 333 332 332 332
318 318 332 339 344 347 345 346 346 346 346 343 345 346 344 345 341 344 342 343 344 344 341 341 339 338 339 338 337 337 337 338 337 337 336 335 334 330 331 333 331 331 332
317 318 318 318 320 335 342 342 344 345 344 346 344 343 345 344 343 343 343 340 340 344 341 338 341 340 338 340 339 337 337 337 337 337 335 335 335 330 328 330 331 331 329
321 323 324 323 321 319 321 340 343 342 342 341 344 344 340 344 341 344 342 342 342 339 342 339 338 339 339 340 339 339 338 337 335 335 335 334 334 331 329 329 328 327 326
322 323 323 324 325 326 324 320 325 337 341 340 340 342 342 340 346 342 344 340 340 342 341 342 339 339 340 339 339 338 337 335 335 335 334 334 334 333 330 327 326 326 326
322 322 323 323 323 324 324 324 321 322 334 341 341 340 341 341 340 343 343 344 340 341 342 341 341 341 340 338 339 338 336 335 334 335 334 334 333 332 329 326 325 325 325
321 320 320 320 321 321 322 323 325 325 322 334 339 341 341 342 343 342 343 344 342 340 339 340 341 340 340 339 338 336 335 335 334 334 333 333 332 332 330 327 326 325 325
317 316 316 316 316 317 318 319 320 321 324 325 324 330 338 341 342 342 343 343 343 340 338 339 341 340 339 338 338 335 334 334 334 333 332 332 331 331 330 328 326 325 325
315 314 314 314 314 314 314 315 317 319 321 325 325 324 334 338 341 341 342 342 342 340 338 337 340 339 337 336 337 332 331 331 330 332 334 331 332 331 331 330 327 325 324
313 312 312 312 311 311 310 311 313 315 317 319 321 323 326 331 332 339 338 341 341 340 338 336 337 338 336 335 336 334 331 331 329 331 332 332 331 331 330 330 329 327 325
311 310 309 309 309 308 307 308 308 310 311 312 313 316 319 324 328 334 338 340 340 340 339 336 335 337 335 334 334 334 333 332 332 330 330 330 332 332 331 330 330 329 327
308 307 307 306 306 305 304 304 304 306 306 307 309 312 315 319 325 333 337 337 339 338 338 337 336 336 335 335 333 333 333 332 331 329 328 328 329 330 330 330 329 329 328

GFSSE_925_thetae_120.txt.gz
Theta_e
343 343 342 342 342 342 341 340 340 339 338 334 332 333 333 334 337 342 343 342 342 343 344 342 342 342 343 342 338 335 337 338 338 338 337 338 339 339 339 339 338 339 339
341 343 342 341 341 342 342 341 340 339 338 336 332 332 333 332 333 335 337 340 341 342 342 342 342 342 342 341 337 335 333 336 337 338 337 337 338 339 339 338 338 339 337
340 343 342 341 341 341 342 341 340 339 338 337 333 332 334 332 330 331 333 336 337 337 338 340 340 339 338 338 334 333 333 333 337 338 337 338 337 342 343 339 337 337 337
343 342 343 342 340 340 341 341 340 339 337 337 333 332 334 332 330 330 332 335 336 336 335 334 334 333 333 332 334 337 336 335 337 338 337 337 336 340 342 341 337 337 337
347 343 343 341 340 340 341 340 339 338 337 338 335 333 334 333 332 331 333 335 339 339 338 336 338 342 338 338 339 337 335 338 338 338 339 337 335 333 336 339 336 336 336
350 344 343 341 340 340 340 339 338 337 337 338 338 334 334 334 333 332 332 335 337 342 343 342 341 342 340 338 338 337 336 337 339 337 338 338 337 333 335 337 335 336 336
351 347 342 341 341 340 340 338 337 337 338 339 340 335 334 335 335 333 333 334 337 343 343 340 337 337 337 338 337 336 336 338 339 338 337 336 337 328 334 334 335 335 336
349 351 346 342 341 340 339 338 337 339 340 341 341 338 335 335 336 335 333 334 336 341 342 341 337 337 338 337 337 337 337 338 338 338 336 336 332 331 336 335 335 334 335
349 350 348 344 341 340 339 338 338 339 341 342 342 340 336 335 337 336 334 335 336 339 342 341 339 338 338 337 338 337 337 337 335 335 336 335 333 335 335 335 334 334 335
349 349 348 347 345 341 340 338 339 340 342 342 341 340 337 336 338 338 337 336 336 338 340 341 339 338 338 337 337 337 337 336 334 335 336 335 332 334 331 334 334 335 334
351 350 348 347 346 344 341 338 339 341 342 342 342 342 341 339 339 339 339 337 337 337 339 340 339 338 337 336 336 336 337 336 334 334 332 334 333 334 333 335 334 334 335
350 351 351 350 349 346 341 339 338 341 342 342 343 343 343 342 341 341 340 338 337 338 339 340 339 339 338 336 336 336 336 335 335 332 333 335 335 334 334 334 334 333 335
334 349 350 351 350 346 341 339 339 339 340 341 342 343 342 342 343 342 341 339 338 338 339 340 340 340 338 337 337 336 335 335 335 333 334 335 335 335 333 333 333 333 334
315 317 343 350 350 348 342 339 338 338 339 339 339 339 340 340 341 342 340 339 338 338 339 340 340 338 337 337 336 335 337 338 335 334 336 335 335 331 329 329 333 334 334
325 324 346 347 348 347 344 342 341 338 337 336 337 337 337 338 337 340 340 339 338 338 340 341 340 338 337 336 336 336 336 339 337 334 336 335 334 331 331 332 333 334 334
325 331 344 344 342 344 343 346 346 345 341 337 336 335 335 336 337 337 342 343 341 341 340 340 340 339 337 336 336 336 337 338 337 337 337 336 335 333 332 332 332 332 333
324 324 324 324 323 328 337 338 339 343 344 343 341 338 337 337 338 338 341 345 345 343 343 341 341 340 339 338 337 337 338 339 337 337 337 336 335 333 331 332 331 331 331
322 322 322 322 322 323 323 324 324 327 333 335 335 337 339 337 340 340 340 342 342 344 343 341 342 341 340 340 340 337 338 338 337 338 337 336 335 334 332 330 330 332 331
319 318 317 318 318 319 319 320 321 322 324 324 323 326 329 325 339 339 340 342 343 342 342 342 342 341 340 340 340 336 338 337 337 337 336 336 335 334 334 333 330 331 332
315 315 315 315 314 315 316 317 317 318 319 320 320 321 324 331 332 327 338 338 339 341 341 342 342 341 341 338 338 337 338 338 337 336 336 335 335 333 334 333 330 328 330
312 312 312 311 310 311 310 310 312 311 312 316 316 317 319 322 325 329 336 338 337 337 338 339 341 340 339 338 337 337 338 338 337 336 336 335 335 334 334 333 332 330 328
309 309 308 308 307 307 307 306 305 306 309 309 311 312 314 316 317 318 323 331 336 337 337 336 336 337 339 337 337 332 331 333 336 336 335 335 334 334 333 333 332 331 330
306 306 305 305 304 304 303 303 304 306 306 307 307 308 308 309 310 311 314 317 323 333 335 335 335 335 335 335 336 332 327 331 326 333 335 334 334 334 333 333 332 331 330
303 303 302 302 301 300 300 299 299 299 300 301 301 302 305 306 308 309 310 311 314 318 329 336 335 333 334 332 331 334 330 329 326 327 331 333 334 333 332 332 332 331 330
300 299 299 298 297 296 297 297 297 296 296 297 298 299 300 303 304 305 307 308 310 313 316 328 336 335 333 331 329 332 331 328 326 323 325 327 331 332 332 331 331 331 330
297 297 296 295 294 293 293 293 294 294 295 295 295 296 298 299 300 302 304 305 307 310 315 320 332 334 334 330 329 329 331 329 326 324 322 323 327 329 331 332 331 330 330

GFSSE_925_thetae_123.txt.gz
Theta_e
346 344 342 342 342 342 342 340 338 335 334 336 335 335 339 342 342 343 345 341 341 345 345 344 342 343 343 341 337 338 337 338 338 337 337 340 340 340 340 339 339 339 333
342 344 342 342 342 343 342 340 338 337 334 333 334 334 335 340 343 344 342 341 341 346 344 342 341 340 342 340 337 334 334 337 338 338 337 340 340 339 338 337 338 338 335
341 342 342 342 342 343 342 340 339 337 335 333 333 334 333 335 338 339 340 340 341 342 341 341 341 341 340 340 336 332 331 337 338 337 337 338 338 338 338 337 337 337 334
340 342 342 342 342 342 342 340 339 338 336 334 332 334 333 332 332 334 336 338 339 338 339 339 339 339 338 336 332 332 334 337 338 338 337 336 337 338 338 337 336 337 333
341 342 342 341 341 341 341 340 339 338 337 334 332 333 333 331 331 332 334 336 337 337 337 338 337 336 335 334 336 336 334 337 338 338 336 335 335 336 334 336 335 336 335
344 342 342 341 340 340 341 340 339 338 337 336 333 333 333 332 331 332 333 335 337 338 337 335 339 340 337 337 337 335 335 338 338 337 338 336 334 332 333 336 335 336 336
348 344 342 342 340 339 340 340 339 338 337 337 334 333 334 333 333 333 334 336 338 340 340 339 339 338 337 336 337 336 336 336 338 337 337 336 336 334 334 335 336 335 335
348 347 343 342 340 340 340 340 338 337 337 338 337 334 334 334 334 333 334 336 338 342 342 338 336 336 336 337 337 336 336 337 337 338 336 336 336 333 332 333 334 335 335
347 349 346 342 341 340 340 339 338 337 338 339 339 336 335 334 335 334 334 335 337 342 342 340 336 336 336 337 337 337 337 337 337 338 335 333 336 332 334 335 335 334 335
346 349 348 346 342 340 340 339 338 338 339 340 341 340 337 335 336 336 335 334 336 339 341 340 338 337 336 336 337 337 336 336 335 334 336 335 334 333 335 335 335 334 334
348 348 348 346 343 341 340 339 338 338 339 341 342 341 339 336 336 337 337 335 336 337 339 341 339 337 336 335 336 336 336 336 335 333 333 335 331 335 335 334 334 334 334
349 348 348 347 346 344 341 340 340 340 341 341 342 341 341 338 336 338 338 337 336 337 338 340 340 338 337 336 336 336 335 335 336 335 332 332 334 332 332 333 333 334 334
346 348 348 348 347 346 344 341 340 341 342 342 342 342 342 342 340 339 340 340 338 338 339 341 341 339 338 337 336 336 335 334 334 334 333 330 334 334 334 333 332 333 334
316 324 317 338 349 348 345 342 340 340 341 342 343 343 343 344 343 342 341 341 341 339 339 341 341 339 338 337 336 336 335 334 333 333 333 333 333 335 334 333 333 333 334
326 327 326 336 349 348 346 343 340 339 339 339 340 341 342 344 345 342 342 341 341 341 339 340 340 340 339 338 337 336 335 335 337 335 333 335 334 334 333 332 330 331 333
331 337 342 344 347 347 345 344 342 339 338 339 339 340 341 340 338 339 339 340 340 340 340 339 339 339 339 338 337 336 336 335 337 337 334 334 335 334 333 330 331 331 332
326 326 326 327 331 337 338 337 339 339 340 340 339 339 339 338 339 339 339 338 338 340 340 339 340 340 340 339 338 337 336 335 337 337 335 334 334 335 334 332 332 332 331
322 321 321 321 322 323 323 323 322 324 326 326 329 331 332 335 339 340 340 339 339 338 340 341 341 341 340 340 338 337 337 336 337 337 336 336 336 336 334 333 332 331 330
316 315 315 316 317 317 318 318 318 318 318 319 319 321 324 329 331 334 335 328 336 337 337 339 341 341 339 339 339 338 338 337 337 338 337 336 336 336 335 334 331 330 330
311 311 311 311 312 313 313 314 314 314 312 313 315 317 316 321 328 331 329 328 326 327 334 336 338 339 339 338 337 337 338 338 337 338 337 337 336 335 335 334 333 332 330
307 307 307 307 306 308 309 309 309 309 309 309 310 310 310 312 315 316 325 327 327 328 328 334 336 338 338 337 336 335 335 335 336 337 337 336 336 335 335 333 333 333 330
302 302 301 301 301 301 302 302 304 304 306 306 307 306 307 307 307 308 311 313 319 327 327 328 335 336 336 336 335 331 333 333 335 335 336 336 335 335 334 333 333 332 331
299 298 298 297 297 296 298 299 301 303 303 303 303 302 302 303 304 305 306 308 310 312 316 325 334 334 334 334 334 331 329 332 327 333 335 335 335 335 334 334 333 333 332
297 296 295 295 294 294 295 295 296 296 296 298 298 299 300 301 302 302 304 305 306 308 311 314 320 333 331 328 331 331 328 327 327 326 329 332 333 334 334 333 333 333 332
294 294 294 293 293 292 292 293 293 293 294 295 296 297 298 300 299 300 301 302 303 304 307 311 315 319 332 328 330 330 328 327 326 324 327 327 330 331 331 332 333 332 332
294 293 292 292 291 290 291 291 291 291 292 292 293 294 295 296 297 298 298 298 299 301 303 306 311 317 326 332 332 330 328 327 326 325 325 323 328 330 331 330 331 332 331

GFSSE_925_thetae_126.txt.gz
Theta_e
341 338 341 341 342 341 337 334 336 336 335 334 335 338 341 342 338 337 339 341 342 344 345 342 338 339 342 338 339 338 337 337 337 336 338 339 339 339 340 339 337 337 338
343 342 341 341 341 342 340 334 334 336 336 335 335 339 341 341 340 342 341 340 341 344 343 340 341 341 342 339 335 334 336 337 336 336 338 340 340 339 339 339 338 334 337
344 342 341 340 341 342 341 337 333 333 335 335 336 338 340 341 342 343 341 339 342 345 345 342 341 340 341 339 336 333 333 336 336 336 337 339 338 338 337 336 337 335 333
342 343 341 341 341 342 341 339 336 333 333 334 335 336 338 340 341 340 339 340 342 345 346 345 343 340 339 338 335 330 333 336 337 336 336 336 337 336 336 337 337 335 334
341 342 341 342 342 343 342 340 338 336 333 333 334 334 335 337 337 336 336 337 338 341 344 344 343 337 337 334 331 334 335 337 337 336 335 335 337 338 336 336 336 334 335
340 342 341 341 341 342 342 340 339 337 335 332 333 334 334 333 333 333 333 333 335 336 338 341 337 333 331 330 334 336 335 337 337 336 335 334 336 337 335 337 335 335 333
344 342 342 341 341 340 341 340 339 338 337 334 333 333 333 332 332 333 333 333 334 334 334 334 334 335 335 336 336 335 335 337 337 336 337 335 335 335 334 336 335 335 335
345 345 343 342 341 340 340 340 340 339 337 336 333 333 333 332 332 333 334 334 335 336 337 337 338 339 337 336 336 335 335 335 336 337 337 336 336 335 334 333 336 335 335
346 347 345 343 341 340 339 340 340 339 337 337 335 333 334 333 333 334 334 336 336 338 339 338 335 335 336 336 336 335 336 336 336 337 336 335 335 335 332 332 334 334 335
346 347 346 344 342 341 340 340 340 338 337 337 338 336 335 335 335 335 335 337 337 340 340 339 336 335 335 335 335 336 336 336 336 336 336 334 333 335 331 334 334 334 335
345 346 347 345 344 343 341 340 339 339 338 338 339 339 337 336 336 336 336 336 337 340 341 340 338 337 336 335 334 335 336 336 335 333 333 334 334 334 333 333 335 334 334
344 345 346 347 346 344 341 340 340 340 340 341 341 341 341 338 338 338 337 336 336 338 340 341 340 338 338 336 334 334 335 336 335 335 333 332 334 332 333 333 333 334 334
330 339 342 345 346 345 344 342 341 340 341 342 343 343 343 342 339 338 339 338 337 338 340 342 342 341 338 337 335 333 333 335 335 335 334 333 332 333 333 332 332 333 334
316 329 341 345 345 346 345 344 343 341 341 345 345 342 342 346 346 344 340 340 339 338 339 340 342 341 340 338 336 334 333 333 334 334 333 333 331 331 334 333 333 332 333
313 314 320 317 321 345 345 343 342 341 340 342 341 341 341 343 343 341 339 344 341 340 339 339 340 342 341 339 338 336 334 334 333 333 333 333 332 332 334 335 334 332 332
323 329 329 332 340 343 345 342 341 340 339 340 340 340 340 341 342 340 340 341 345 340 340 339 339 339 341 342 339 338 336 335 334 333 335 335 333 333 334 334 332 332 331
324 323 327 337 337 340 341 338 337 338 339 338 338 338 338 339 337 338 338 338 337 337 336 337 339 338 338 341 342 340 337 336 335 334 334 337 335 334 334 334 333 330 331
314 313 314 315 319 321 321 322 323 325 330 332 333 333 333 335 335 331 332 336 336 336 338 339 338 339 338 338 338 340 337 337 336 335 335 337 336 333 334 334 334 332 331
307 307 307 308 309 311 313 315 316 318 319 319 321 321 324 328 330 330 331 331 332 335 336 336 337 337 337 337 337 337 337 337 336 336 335 337 336 335 334 335 334 333 332
303 302 302 302 303 305 307 309 309 310 311 313 314 314 316 318 320 323 327 328 328 328 328 329 328 331 334 336 337 335 335 335 336 336 335 336 336 336 336 336 335 334 331
299 300 299 299 298 300 301 302 304 303 306 307 306 306 307 308 309 311 315 321 322 326 327 326 327 328 328 333 335 334 333 332 334 335 335 335 335 335 336 336 335 334 332
296 295 295 295 296 296 297 297 297 300 303 304 302 301 303 303 305 306 307 309 311 315 321 326 327 326 326 327 333 331 332 330 331 332 332 331 332 334 335 336 335 334 333
295 294 294 294 294 293 295 296 297 298 299 300 299 298 299 301 302 303 304 305 307 308 311 314 323 327 327 329 332 332 329 331 326 329 331 331 330 329 333 335 335 334 333
294 293 293 293 292 292 292 293 292 291 292 294 294 295 297 298 299 300 301 302 303 304 307 309 313 318 326 326 325 330 330 328 327 327 326 328 326 325 329 332 334 334 333
294 292 292 292 291 291 291 291 290 289 289 290 291 293 294 295 296 297 298 298 299 301 302 304 307 311 315 321 328 329 329 329 328 325 324 322 323 323 325 329 331 332 333
293 292 291 290 290 290 289 289 289 289 289 290 291 292 293 293 294 295 296 296 296 298 299 301 303 305 309 315 322 327 327 328 327 326 325 322 322 323 324 326 327 330 331

GFSSE_925_thetae_129.txt.gz
Theta_e
340 336 339 340 342 336 337 337 338 338 338 339 340 340 340 338 336 336 338 338 342 345 346 342 340 340 339 339 339 339 337 337 336 336 337 338 339 341 340 338 337 341 338
341 335 340 341 341 339 334 337 336 337 336 337 338 338 340 338 336 337 339 339 343 345 346 342 339 341 339 338 337 336 336 336 336 336 339 338 340 342 339 337 340 340 338
345 340 340 341 341 341 337 334 337 337 337 337 337 338 340 339 338 339 339 339 340 345 344 343 340 340 341 337 335 334 334 336 335 336 338 342 343 340 339 338 336 337 337
343 341 341 341 341 341 340 335 334 337 337 337 338 338 339 339 340 340 340 339 340 344 342 344 342 340 340 339 335 332 332 335 335 335 341 342 342 340 339 338 335 334 336
343 342 341 341 341 341 342 338 334 333 335 337 339 340 339 339 341 340 339 339 342 345 344 343 340 338 338 337 335 330 332 335 336 337 342 342 342 340 337 336 336 334 332
342 343 341 341 341 341 342 340 338 335 333 335 337 339 340 340 340 338 337 338 340 344 343 342 339 337 336 334 331 334 335 335 336 341 340 340 341 338 336 335 336 336 333
341 341 342 341 342 342 342 341 339 338 335 333 335 337 340 341 339 336 336 336 337 338 340 339 336 334 331 330 334 335 335 336 338 340 339 339 340 338 336 335 335 335 333
345 343 342 341 341 341 341 341 340 339 337 335 333 335 337 337 337 335 335 334 334 335 337 336 333 331 332 333 335 335 335 335 336 339 338 337 336 335 333 333 335 335 334
345 346 345 342 341 341 341 341 340 340 339 337 334 333 334 335 335 335 335 335 334 335 335 335 334 337 335 335 334 335 335 334 337 339 337 337 335 335 335 334 336 335 335
341 344 346 344 342 342 341 340 340 340 339 338 337 334 334 334 336 336 337 337 336 337 338 339 339 337 335 334 335 335 335 335 338 338 337 337 335 334 334 333 334 334 334
338 340 344 346 345 342 341 341 340 340 340 339 338 338 337 340 340 340 340 338 339 339 341 341 339 336 335 334 335 335 336 339 339 338 336 335 334 333 335 331 333 334 334
336 335 340 344 346 344 344 342 341 340 340 340 340 340 340 340 341 342 341 339 339 339 340 342 340 338 338 339 338 336 337 339 339 338 335 332 333 334 334 332 332 335 334
319 330 336 343 345 345 345 343 341 340 341 341 341 341 343 342 339 339 341 340 340 340 341 342 341 340 341 341 340 338 338 338 338 336 335 334 332 333 333 332 333 333 334
312 314 330 343 345 345 345 344 343 342 342 344 345 343 343 343 343 341 341 340 339 341 341 340 342 341 341 340 340 338 337 337 337 334 334 334 334 333 332 333 332 332 332
321 327 326 332 331 332 343 344 343 342 343 342 342 343 343 343 341 341 341 340 340 340 341 341 341 339 338 338 338 338 339 335 334 334 334 333 333 333 332 332 334 333 333
317 316 323 331 335 337 338 340 341 340 340 340 343 340 340 341 341 340 340 340 340 340 339 339 338 339 340 338 338 338 337 336 335 334 334 334 333 333 333 333 334 334 332
310 309 309 314 320 328 331 337 337 336 335 335 336 336 337 338 338 338 338 340 338 337 336 336 336 336 340 339 338 337 337 337 336 335 334 334 333 336 334 333 334 334 332
305 304 304 307 310 314 315 320 324 327 329 329 329 327 328 332 335 336 337 336 334 333 334 336 336 339 339 339 340 339 337 337 337 337 336 334 334 334 336 334 334 334 333
300 300 300 302 303 306 310 310 312 314 316 316 316 315 315 318 321 324 329 332 330 329 331 333 333 330 337 336 336 338 337 338 337 337 337 336 335 335 336 335 333 333 334
298 298 298 298 298 301 303 307 306 306 307 307 307 307 307 307 309 311 315 324 328 330 331 330 329 327 334 337 337 337 336 336 335 334 334 335 335 334 335 336 335 334 335
297 297 296 296 296 296 297 300 302 302 305 305 303 301 302 303 304 306 308 310 315 323 326 329 330 331 331 331 332 332 334 334 334 333 334 334 335 334 335 335 335 335 335
296 296 295 295 294 294 295 295 296 298 301 302 300 299 299 300 301 303 304 306 308 311 315 320 325 327 328 329 331 332 333 333 331 331 332 333 333 333 333 333 334 334 335
296 295 294 294 293 293 293 294 295 296 297 298 296 297 296 298 299 300 301 303 304 306 309 312 316 321 325 328 329 330 333 336 331 329 330 330 329 329 329 329 328 330 333
294 293 293 293 293 292 292 293 293 293 294 293 294 295 295 296 296 298 299 300 301 302 304 306 308 313 318 324 328 328 329 329 330 331 326 328 327 326 326 326 324 327 327
294 293 292 292 291 291 291 292 292 292 292 292 293 293 294 294 295 296 297 297 298 299 300 301 304 306 310 314 320 328 326 327 329 331 331 327 325 325 323 324 323 326 328
294 292 292 291 291 290 290 290 291 291 291 291 292 292 292 293 293 294 294 295 296 297 298 299 300 302 304 306 309 315 326 328 328 329 331 329 328 326 325 325 324 325 328

GFSSE_925_thetae_132.txt.gz
Theta_e
344 348 341 341 337 338 339 340 340 341 340 341 340 338 336 335 334 335 335 337 342 344 341 338 339 339 340 339 339 339 337 336 336 336 337 338 340 341 339 338 339 342 339
345 349 340 340 340 335 338 338 340 341 342 343 341 339 337 335 335 336 336 338 343 345 342 337 339 339 339 339 338 337 335 335 335 337 337 339 344 342 339 337 341 339 337
349 348 341 340 341 336 336 336 337 339 341 342 342 340 338 337 336 337 337 338 344 345 344 338 340 340 338 336 336 334 334 333 335 337 338 342 342 344 338 338 341 337 338
350 349 349 341 342 339 334 336 336 336 338 341 341 340 338 337 337 338 338 338 342 345 346 340 338 339 340 338 335 333 332 333 335 336 342 341 341 340 339 336 338 337 337
349 349 350 342 342 342 337 335 336 336 337 339 340 340 340 338 337 339 339 338 339 344 343 345 342 340 339 339 336 331 330 334 336 338 342 341 341 339 336 337 334 336 336
350 349 348 341 341 342 341 337 334 334 336 337 339 340 341 339 338 340 340 338 339 342 343 346 345 339 338 337 336 332 332 334 335 341 341 341 342 340 335 335 339 336 335
348 350 348 341 342 342 342 341 338 335 334 335 338 340 341 340 340 341 340 339 340 342 344 345 345 339 337 336 333 331 335 334 339 341 341 340 341 338 335 335 335 335 332
349 350 350 343 342 342 342 342 341 339 336 334 335 338 341 341 342 342 340 340 340 341 342 342 341 339 336 332 331 335 335 334 338 341 341 340 341 337 336 333 335 335 333
348 350 351 350 346 342 342 342 342 340 339 337 334 336 340 342 343 342 340 340 340 341 340 339 339 338 334 333 335 336 335 335 340 339 340 340 340 335 335 333 334 335 334
344 348 350 351 351 350 349 341 341 341 340 339 338 335 336 339 340 341 339 340 339 337 337 337 336 334 337 337 336 336 336 336 338 339 340 339 339 335 335 334 334 335 335
334 343 348 351 351 351 350 349 342 341 341 340 340 338 336 341 342 342 341 342 338 337 336 336 336 337 338 336 336 336 336 338 338 339 338 339 337 334 335 334 333 335 334
320 328 344 349 350 351 349 348 349 348 346 346 345 345 343 343 343 343 342 341 341 337 338 339 339 338 336 338 338 336 337 338 338 339 339 338 336 334 334 335 332 333 334
318 318 328 344 349 350 348 348 348 348 347 347 347 347 345 344 344 343 343 343 342 340 342 340 340 341 340 339 338 338 338 338 338 338 338 338 334 333 334 334 332 333 334
321 328 329 336 342 348 347 345 347 347 345 344 344 344 346 345 345 344 343 342 343 342 342 342 342 342 341 341 341 340 340 339 337 337 338 338 335 334 333 333 333 333 333
320 320 322 324 329 339 339 342 343 343 341 341 341 341 342 342 342 343 343 343 342 342 341 341 343 342 343 342 341 340 340 340 339 338 338 338 334 333 334 333 332 333 332
315 314 314 317 319 325 334 337 338 340 340 338 339 339 338 340 341 342 341 343 342 343 343 342 339 341 342 340 340 341 341 340 339 339 338 338 336 333 332 333 333 331 333
312 310 309 311 314 317 320 325 329 330 334 334 334 335 336 337 337 339 340 340 340 341 343 340 341 339 338 340 340 339 340 341 340 340 339 339 338 335 333 334 333 332 334
307 307 306 306 308 311 314 317 318 320 320 322 323 323 327 328 329 332 336 337 338 338 337 336 339 339 338 338 339 340 340 339 340 340 339 339 339 337 336 334 335 333 334
304 304 304 304 304 306 310 314 313 315 315 314 315 314 312 313 315 318 325 327 331 334 335 335 336 338 336 333 334 336 337 339 339 339 339 339 339 339 338 337 336 335 333
303 303 303 303 302 304 305 309 311 310 312 311 309 308 308 308 309 312 315 317 320 325 329 334 335 336 334 332 332 336 336 336 337 339 338 338 338 338 339 338 337 336 333
302 302 301 301 301 301 302 303 305 305 309 309 306 305 305 305 307 309 310 312 314 317 321 324 328 332 334 332 330 332 329 327 335 337 338 337 337 338 338 338 337 337 336
303 301 301 301 300 300 300 301 301 302 304 304 303 303 302 303 304 305 307 308 310 312 314 318 322 322 326 330 332 332 334 332 333 334 336 336 337 337 337 337 337 338 337
300 300 299 299 298 298 299 300 301 302 302 302 301 301 301 301 302 303 304 305 307 308 310 312 315 318 321 322 328 331 333 335 334 335 335 336 336 336 336 335 336 336 336
301 300 299 299 298 297 297 298 298 300 300 300 300 299 300 300 300 300 301 302 302 304 306 308 309 311 313 316 320 323 329 331 334 335 332 333 333 334 333 332 331 331 331
300 299 298 297 297 295 296 296 297 297 297 297 298 297 298 298 299 298 298 298 299 299 301 302 303 306 310 312 315 317 320 328 331 333 332 331 331 330 329 326 326 327 328
299 298 297 297 296 295 295 295 295 295 295 295 295 295 296 296 297 297 296 295 296 297 298 299 300 302 303 305 308 311 314 319 327 330 332 331 330 329 328 327 326 326 327

GFSSE_925_thetae_135.txt.gz
Theta_e
348 348 342 340 337 336 339 340 340 339 339 335 335 336 335 335 336 336 337 341 344 343 336 338 339 340 341 341 340 338 335 335 337 337 338 339 342 339 339 337 341 342 338
347 349 341 339 337 337 338 339 340 340 339 339 337 337 336 335 335 335 336 339 343 343 339 337 339 339 339 339 339 337 335 335 336 337 337 340 342 340 337 339 340 341 338
348 351 342 341 337 337 338 339 340 340 340 342 340 338 337 336 336 336 336 339 343 344 340 338 339 339 339 338 337 336 334 334 335 335 339 344 343 339 337 341 341 335 337
350 351 349 341 339 336 337 338 339 339 340 342 342 339 338 337 337 337 337 339 343 345 343 339 340 339 338 336 335 334 333 333 334 334 343 343 344 337 336 339 340 337 337
348 350 351 342 341 337 336 337 337 338 340 341 342 341 339 338 337 338 339 339 343 345 346 341 340 339 339 338 336 333 330 332 334 336 343 342 342 338 337 335 337 336 337
348 351 351 343 342 341 338 336 337 337 337 339 341 341 341 339 338 338 340 340 342 344 346 344 344 342 340 339 337 334 329 333 334 340 340 341 343 337 334 336 338 338 336
345 351 350 342 342 342 342 339 335 335 337 338 340 341 341 340 339 338 340 341 341 342 343 343 345 344 340 339 337 335 331 334 336 342 339 342 342 339 334 335 338 336 336
343 349 352 344 342 342 342 342 340 337 335 335 337 341 342 342 340 339 340 341 341 341 344 344 344 343 340 338 337 332 334 334 337 342 338 340 341 340 335 335 335 336 334
341 344 349 353 348 342 342 342 342 341 339 337 335 336 340 342 342 340 342 341 340 340 342 343 342 342 339 336 333 333 336 335 336 340 339 339 340 340 335 334 334 335 335
333 340 346 351 354 353 350 342 341 341 341 340 338 336 335 338 341 343 343 341 339 339 339 340 340 340 338 334 334 335 335 335 337 339 339 337 340 338 334 335 334 334 335
325 334 339 347 350 354 354 353 348 341 341 341 340 339 337 340 343 344 344 344 340 338 338 337 338 336 336 336 337 336 336 338 338 338 335 339 338 339 335 335 335 333 335
322 323 329 342 346 349 349 350 352 351 349 347 346 346 345 343 342 343 343 342 342 340 337 337 337 337 338 341 339 335 336 337 337 336 337 338 337 337 334 335 335 334 334
323 330 333 337 345 345 343 344 343 342 347 347 347 347 347 345 344 344 343 342 343 342 340 339 340 342 342 339 338 339 340 338 337 335 335 338 337 336 334 334 335 333 332
324 324 325 327 334 341 346 346 346 347 346 346 345 347 347 346 345 344 342 343 341 342 341 341 341 341 341 340 340 339 338 338 336 335 335 337 337 337 333 332 333 334 333
319 319 320 322 326 332 336 340 344 345 343 342 341 342 341 344 345 345 344 342 341 342 341 341 342 342 342 341 341 341 340 339 338 337 336 337 338 336 334 334 332 332 333
317 316 315 318 320 325 329 331 334 336 338 338 339 338 339 339 340 341 342 343 341 341 341 342 342 342 342 341 341 341 340 341 341 341 339 338 338 337 334 333 333 332 332
314 313 312 312 315 320 324 326 327 325 326 329 328 329 330 331 333 335 338 339 340 340 340 340 339 341 342 341 339 340 340 341 341 340 339 339 338 338 337 332 332 332 331
312 311 310 310 311 313 317 320 320 321 320 319 319 317 318 318 320 323 326 331 332 335 338 337 333 324 335 336 338 340 341 341 341 341 341 340 339 339 338 337 333 332 333
310 309 308 308 308 309 311 317 317 316 317 316 316 315 313 314 315 317 322 325 325 329 332 335 336 335 337 336 336 336 339 339 339 339 339 339 339 338 339 338 337 334 334
309 308 307 307 306 307 308 310 312 311 314 314 311 310 310 310 311 313 315 318 319 322 326 328 330 332 337 337 336 335 336 336 335 337 338 338 339 338 338 339 338 337 335
307 307 306 306 305 305 306 306 307 307 310 309 308 307 307 307 309 309 311 312 314 316 318 320 323 327 328 333 333 333 333 334 334 335 337 338 338 337 338 338 338 338 337
307 306 306 305 304 304 304 305 306 306 306 307 306 306 305 305 306 306 308 309 310 312 313 316 318 321 323 326 330 331 334 333 333 332 330 330 331 330 335 337 337 339 338
306 306 305 305 304 303 303 304 305 305 306 305 304 304 304 304 304 304 305 306 306 307 309 311 313 315 317 319 322 326 332 333 331 331 328 329 324 331 335 336 337 338 338
307 306 304 303 301 301 301 302 303 303 303 303 303 303 302 303 302 303 303 302 302 303 304 306 308 309 311 314 316 318 322 327 329 332 330 333 333 334 335 336 337 337 337
305 303 303 302 301 301 300 300 301 301 300 300 300 300 300 300 300 301 301 299 299 299 300 301 302 304 305 307 310 314 317 319 321 330 332 331 330 333 334 335 335 335 336
303 303 302 302 300 300 299 298 299 298 298 298 298 298 298 298 298 298 296 296 295 296 297 297 298 299 300 302 304 306 310 315 316 322 328 330 330 328 331 333 334 333 333

GFSSE_925_thetae_138.txt.gz
Theta_e
349 342 341 339 337 337 338 340 339 338 336 333 334 334 334 334 333 333 335 338 341 339 336 337 338 339 340 340 339 336 333 333 334 334 336 338 338 339 336 340 343 340 339
350 342 341 338 337 338 339 340 340 338 338 334 335 335 335 336 336 334 336 339 341 339 336 338 339 341 341 340 338 336 333 333 334 335 336 339 338 338 338 341 341 338 338
351 347 341 338 337 338 339 340 340 339 339 337 337 336 336 337 337 336 337 338 341 341 337 337 339 340 339 339 338 335 333 332 334 335 341 344 337 336 338 340 341 336 337
352 352 346 340 337 337 338 339 340 340 340 340 341 338 337 337 337 337 337 338 341 343 341 337 338 339 338 337 336 334 332 331 332 335 342 342 342 337 338 340 337 336 336
351 352 350 341 339 337 337 337 338 339 340 340 341 340 338 338 337 337 338 339 342 345 344 338 338 339 338 337 335 334 331 329 332 333 342 341 329 338 336 339 337 336 337
352 353 350 343 341 338 336 336 336 336 337 339 341 342 341 339 338 337 338 340 342 344 346 344 339 338 339 339 338 335 331 328 332 335 340 340 340 336 335 335 338 337 338
349 352 344 342 341 341 339 336 336 336 337 338 339 341 341 341 339 338 339 340 341 344 344 346 343 342 341 339 338 336 334 329 333 339 335 341 342 339 333 335 337 338 336
345 351 351 344 341 341 341 341 338 336 335 336 337 339 341 341 340 339 339 340 340 342 343 344 344 344 344 340 338 336 332 331 333 338 340 341 341 339 335 334 336 337 336
340 344 351 354 351 342 342 342 342 340 338 336 335 336 338 341 342 341 339 339 340 340 339 341 344 343 344 341 338 335 331 333 332 336 341 339 332 339 336 333 334 336 336
332 340 344 349 354 354 352 343 342 342 341 340 338 337 336 338 341 342 341 341 341 340 337 339 340 342 343 340 337 333 332 334 332 332 338 339 339 340 337 333 333 334 335
328 333 341 345 347 350 353 353 351 345 341 341 340 340 338 336 338 340 342 342 342 340 337 337 339 339 339 339 336 333 335 334 333 334 334 338 338 339 337 334 334 334 334
331 331 330 337 344 347 347 348 349 347 347 346 345 345 346 342 341 343 344 342 341 341 339 338 337 337 339 340 335 335 335 333 337 338 339 338 339 338 337 335 334 334 333
325 324 324 326 332 340 344 346 346 347 345 344 345 346 345 345 345 344 343 343 342 341 340 339 338 338 339 337 340 341 337 333 336 337 338 338 337 336 335 333 333 334 333
321 320 322 323 326 331 337 340 343 345 344 343 343 344 343 344 345 344 342 341 341 340 341 341 341 338 338 340 340 339 340 338 337 336 337 337 337 337 335 333 332 334 334
318 317 317 319 323 327 330 333 335 338 338 338 339 339 340 339 340 341 342 342 340 340 340 340 340 341 341 341 342 337 341 341 339 337 338 337 337 336 335 334 332 332 333
315 314 313 315 318 323 326 328 330 330 331 332 332 330 331 332 333 335 336 338 340 341 341 339 339 339 339 338 338 339 340 341 340 337 338 338 337 337 336 335 333 333 332
314 313 312 312 313 317 321 323 324 322 322 322 319 319 320 321 320 323 327 330 332 332 333 337 338 336 335 327 328 331 339 339 339 340 340 340 340 339 337 337 334 332 333
312 311 310 309 310 311 315 319 318 318 318 317 316 314 314 313 314 317 320 324 324 325 329 332 334 336 334 324 326 328 335 335 335 337 338 337 338 339 339 338 337 335 331
311 310 309 308 308 308 309 312 313 313 314 314 310 310 309 309 310 312 314 316 316 319 322 325 326 329 333 334 327 332 331 331 334 335 335 336 338 337 339 340 339 337 334
309 308 308 307 306 307 307 307 308 308 310 310 308 308 307 307 308 308 310 311 312 314 316 317 319 323 327 329 332 334 335 335 336 335 335 336 336 335 335 337 339 338 337
309 308 308 307 306 306 307 307 308 308 307 308 306 306 305 306 306 306 306 308 309 310 311 313 316 318 321 323 327 330 332 332 333 333 334 334 335 335 333 337 338 338 338
309 308 307 306 305 305 305 306 306 307 307 306 306 305 304 305 304 305 304 305 304 305 307 307 311 314 315 318 324 325 328 328 330 332 333 333 333 332 334 332 336 339 338
309 307 305 303 302 303 303 303 304 305 305 304 304 304 302 303 302 303 303 302 301 302 303 304 305 306 308 310 314 321 325 327 325 327 330 332 332 332 331 332 333 334 337
307 305 304 303 303 302 301 302 302 302 302 302 302 300 301 300 301 300 299 297 298 297 299 300 301 301 303 305 308 312 315 320 322 323 324 324 328 331 331 329 329 332 333
305 304 304 302 302 301 300 300 300 299 300 299 298 298 297 297 297 296 294 294 294 295 295 295 296 297 298 300 302 305 306 310 314 318 317 318 323 328 329 330 330 332 332
305 304 303 302 301 300 299 299 298 297 297 297 295 295 294 294 293 292 292 292 292 292 293 294 294 295 296 297 298 300 302 306 309 311 314 315 317 318 325 327 329 332 334